ECMWFNIL_925_spd_024.txt.gz
Wind_Speed
15 14 13 13 13 12 11 11 10 10 11 10 9 9 10 10 11 11 9 9 8 7 7 7 7 6 6 5 5 5 5 6 6 6 6 6 6 6 5 5 4 3
16 15 14 13 13 12 12 12 11 11 11 11 10 9 10 11 12 11 10 10 9 8 8 7 7 6 6 6 5 5 5 5 5 5 6 5 5 5 5 4 4 3
18 17 16 16 14 13 13 13 13 12 11 11 11 10 10 12 13 12 11 11 10 9 9 8 8 7 6 6 6 5 5 5 5 5 5 5 4 4 4 3 3 2
19 19 18 17 16 14 13 13 13 13 12 12 12 12 12 13 14 13 12 12 11 10 10 9 9 8 7 7 6 6 6 5 5 5 4 4 4 3 3 2 2 1
17 18 18 17 17 16 15 14 15 14 14 14 13 14 14 14 15 15 14 13 12 12 11 11 10 9 8 7 6 6 6 6 5 5 5 4 3 3 2 2 2 1
16 17 18 18 17 17 16 15 15 15 15 15 15 15 15 16 16 16 16 15 14 13 13 12 11 11 10 8 7 7 6 6 6 6 6 5 4 3 3 2 2 1
17 17 17 17 17 17 17 16 15 15 15 15 15 16 16 17 17 17 17 16 15 14 14 13 12 12 11 10 9 8 7 7 7 7 6 6 5 5 4 3 2 2
17 17 17 17 17 17 17 16 15 15 15 15 15 15 17 18 18 18 17 17 16 15 14 14 13 13 12 11 10 10 9 8 8 8 7 6 5 5 5 4 3 2
15 16 16 17 17 17 17 16 15 15 15 15 15 14 15 17 18 18 18 17 17 16 16 15 14 13 13 11 11 11 11 10 9 8 8 7 7 6 5 4 3 3
11 13 14 15 15 15 16 16 16 15 14 14 14 14 15 16 17 18 19 19 19 18 17 17 16 15 14 13 12 12 11 10 10 9 9 8 7 6 5 4 3 3
9 11 13 13 12 13 14 15 15 15 15 15 15 15 15 15 16 17 18 19 20 19 19 18 17 17 15 14 13 12 11 11 10 9 9 8 7 6 5 4 4 4
7 10 12 11 12 14 16 15 15 15 15 15 15 16 15 15 16 17 18 19 19 19 20 20 19 18 17 16 14 13 12 11 10 10 9 8 7 6 5 4 4 5
6 8 9 10 12 14 14 14 14 15 15 15 15 15 15 16 19 20 21 22 21 21 20 20 19 18 16 15 14 14 13 13 12 10 9 8 7 6 5 5 5 5
6 6 6 8 10 10 11 11 13 14 14 14 14 16 17 18 20 21 23 24 23 23 22 20 19 18 16 16 15 14 14 13 12 11 10 9 7 6 6 5 5 6
7 6 6 6 6 7 8 10 11 12 12 13 14 16 17 18 19 20 23 24 24 23 22 23 24 23 22 21 18 15 14 13 12 11 9 8 7 6 6 6 6 7
7 8 8 8 7 7 7 8 9 10 12 14 15 16 16 16 17 19 21 22 23 23 22 24 27 28 27 24 19 15 14 12 11 10 9 7 6 6 6 6 7 8
8 8 9 9 9 9 9 9 8 9 11 13 13 14 15 15 16 18 20 22 24 24 23 24 26 26 25 23 22 18 14 11 10 9 8 7 6 5 6 7 8 9
9 9 9 9 10 10 10 10 10 10 11 12 12 13 14 15 16 19 21 22 23 24 23 22 23 24 24 24 24 22 16 11 9 8 7 6 6 5 6 7 8 9
10 10 10 10 9 10 10 10 11 11 12 12 12 12 13 15 17 18 20 22 23 23 22 21 22 25 25 24 23 21 18 12 8 7 6 5 5 6 7 8 9 10
11 11 11 10 10 10 10 11 11 12 13 13 13 13 13 15 16 17 19 21 22 22 20 20 24 26 25 24 21 19 17 12 7 6 5 5 6 7 8 9 10 11
11 11 11 11 11 11 11 12 12 12 13 13 13 13 13 14 16 17 18 20 21 20 18 19 25 27 25 23 20 17 15 10 6 5 5 6 7 8 8 9 10 11
11 11 11 11 12 12 12 12 12 13 13 13 14 14 14 15 16 17 19 19 19 20 20 22 25 26 24 21 18 15 11 8 6 6 6 7 8 9 9 10 11 11
13 13 13 12 12 12 13 13 13 13 14 14 14 14 15 16 17 16 17 19 21 23 25 27 27 25 22 19 16 12 8 6 6 6 6 8 9 9 10 11 11 12
14 14 14 13 13 13 13 13 13 13 13 13 14 15 16 16 17 15 15 20 25 26 28 30 28 23 20 16 13 10 7 5 5 6 7 8 9 10 11 11 12 14
15 15 15 15 15 14 14 13 13 13 13 13 15 16 15 14 15 15 16 21 26 27 28 30 27 22 17 14 11 8 6 4 4 6 7 9 10 11 11 12 13 15
16 16 16 16 16 16 15 15 14 14 14 14 14 14 13 12 14 16 20 24 27 27 27 26 24 20 16 12 9 6 4 3 4 6 8 9 10 11 13 14 15 15

ECMWFNIL_925_spd_027.txt.gz
Wind_Speed
14 14 13 13 12 12 12 11 10 10 9 8 7 8 8 8 9 8 6 6 5 4 4 4 3 2 2 2 1 2 3 4 4 4 4 5 5 5 5 5 5 4
15 14 13 13 13 12 12 12 11 11 10 9 8 8 9 9 10 9 8 7 7 6 6 5 4 3 2 2 2 2 3 3 3 3 3 3 3 4 4 4 4 4
15 14 14 13 13 12 12 12 12 11 11 11 10 9 9 11 11 10 10 9 8 8 7 6 6 5 4 3 3 3 3 3 3 3 3 2 2 2 2 2 3 3
15 15 14 13 12 12 12 12 12 12 11 12 12 11 11 12 12 12 11 11 10 9 9 8 7 6 5 5 4 4 4 4 4 4 3 3 2 2 1 1 1 2
14 14 14 14 13 13 12 12 13 12 12 12 12 13 13 14 14 14 13 13 12 11 10 10 9 8 7 7 6 5 5 5 5 4 4 4 3 2 2 1 1 0
12 13 14 14 13 13 13 13 13 13 13 12 13 13 14 15 16 15 15 15 14 13 12 12 11 10 10 9 8 7 6 6 6 5 5 4 4 3 2 2 2 1
11 12 13 13 13 13 14 14 13 13 13 13 13 13 14 15 16 16 16 16 16 15 15 14 14 13 12 11 10 9 8 7 7 7 6 6 6 5 4 3 3 2
10 11 12 12 13 14 14 14 14 13 12 13 14 14 15 16 16 17 17 17 17 17 16 16 16 15 14 13 12 11 10 9 8 8 8 7 7 6 6 5 4 3
9 10 13 14 14 14 15 15 16 15 13 13 14 14 15 16 17 17 18 18 18 18 18 18 17 16 16 14 13 13 12 11 11 10 10 9 8 8 7 7 5 5
8 10 15 16 14 14 14 15 17 17 16 15 15 15 16 16 17 18 18 18 19 19 18 18 17 17 16 16 15 14 14 13 13 12 12 11 10 9 8 7 6 6
9 11 13 14 14 14 14 14 15 16 17 17 18 19 19 18 18 18 19 20 20 19 19 18 18 17 17 17 16 15 15 15 14 14 13 13 12 11 9 8 7 6
9 12 12 13 13 14 14 16 19 20 19 19 19 19 19 19 19 19 19 21 21 20 20 19 18 18 18 18 17 17 17 17 16 15 14 13 12 11 10 9 8 7
5 8 9 9 10 12 14 18 20 20 20 19 19 20 20 19 19 18 19 20 21 21 21 20 20 20 20 19 18 18 18 17 16 15 14 13 12 11 10 10 9 7
2 3 4 4 6 10 14 16 16 16 18 19 18 18 19 19 18 18 19 20 21 22 23 22 22 21 20 20 19 19 18 17 15 15 13 12 12 11 10 9 9 8
4 5 5 4 5 7 9 11 12 14 17 18 18 18 18 18 18 18 19 20 21 21 21 21 21 20 20 22 21 20 18 16 15 15 14 12 12 11 10 9 8 8
6 6 7 7 7 8 8 9 9 10 12 13 15 17 18 18 18 18 19 20 21 20 20 20 21 21 23 24 24 21 17 15 15 14 13 13 11 10 10 9 8 8
7 7 7 8 8 9 10 10 10 10 9 10 11 13 15 16 16 17 18 20 22 22 22 23 24 24 24 25 26 22 16 14 14 13 12 12 10 10 9 8 8 8
7 7 8 9 9 9 10 10 11 11 11 11 11 12 14 14 15 16 17 19 20 20 20 22 24 25 25 25 27 25 18 14 13 12 12 11 10 9 8 8 7 7
7 8 9 9 9 9 10 10 11 12 12 13 13 14 14 14 16 17 17 18 18 17 18 20 22 25 26 25 25 26 22 16 12 12 12 11 10 10 9 8 7 7
8 8 9 9 9 10 10 11 11 12 13 13 14 14 15 15 17 17 17 18 18 18 19 21 23 25 26 26 26 26 25 19 12 11 11 10 9 9 8 8 8 8
9 9 9 10 10 10 11 12 12 13 13 13 14 14 15 16 16 17 18 18 18 19 19 20 22 24 25 27 27 27 26 20 11 10 10 8 8 9 8 8 9 9
9 10 10 10 11 11 12 12 13 13 13 13 14 15 15 16 15 16 16 16 17 19 17 16 19 22 24 26 27 28 26 18 10 9 8 7 8 8 8 9 10 10
9 10 11 11 11 12 13 13 13 13 13 13 14 15 15 16 16 15 15 16 17 16 14 16 20 21 23 25 27 26 23 15 9 8 8 8 8 8 8 9 10 11
11 11 12 12 12 12 13 13 13 13 13 13 13 14 15 15 15 15 15 14 14 12 14 18 21 22 23 25 24 23 19 12 8 8 7 7 7 7 8 9 11 12
13 13 13 13 13 13 13 13 13 13 13 13 13 14 15 15 15 16 13 9 8 11 14 17 21 23 22 22 21 19 16 10 5 5 5 5 6 7 8 9 10 12
15 14 14 13 14 14 13 13 13 13 13 13 14 14 14 14 12 10 6 7 9 12 14 17 23 24 21 19 18 16 14 9 4 2 3 4 5 6 8 9 11 12

ECMWFNIL_925_spd_030.txt.gz
Wind_Speed
18 17 17 16 15 15 14 13 12 12 11 10 11 11 10 10 9 9 8 7 7 6 6 5 5 5 5 6 7 6 6 6 6 6 6 6 7 7 7 7 7 7
19 18 17 16 14 14 15 13 11 12 12 9 10 11 11 11 11 10 9 9 8 7 7 6 5 5 5 5 6 5 5 6 5 5 5 5 5 6 6 6 6 7
19 18 17 17 15 13 15 14 11 10 11 10 9 9 11 13 12 11 11 10 10 10 9 8 7 7 6 6 6 6 5 5 5 5 5 4 4 4 5 5 5 6
18 17 16 15 14 13 13 14 12 9 9 10 10 9 9 12 13 12 12 12 11 11 11 11 10 9 8 7 7 7 6 6 7 6 5 4 5 4 4 4 3 4
17 15 14 13 12 11 11 12 12 10 9 10 11 11 10 12 13 13 13 14 13 13 13 12 12 10 10 9 8 8 8 7 8 8 6 6 5 4 4 4 3 4
15 14 13 12 11 11 9 10 11 10 10 9 11 12 12 13 14 14 15 15 15 14 14 14 14 12 12 11 10 10 9 9 10 9 9 9 7 6 5 5 4 3
12 12 11 11 11 12 10 10 11 11 13 12 12 13 13 14 15 15 15 16 16 16 15 15 15 14 14 13 12 12 11 11 11 10 10 10 10 8 7 6 5 4
10 10 10 11 12 13 12 12 12 12 14 14 15 14 14 14 15 15 16 17 17 16 16 16 15 15 15 15 14 14 14 13 13 13 12 11 12 11 10 9 8 6
9 9 11 12 13 13 13 14 15 15 15 16 17 16 15 16 17 17 18 18 18 18 17 16 16 15 16 16 16 15 15 15 14 14 14 13 14 13 12 12 11 9
9 8 10 11 12 12 11 12 15 16 17 18 18 18 18 18 18 19 19 19 20 19 18 18 18 17 17 18 17 16 16 15 15 15 15 14 14 14 13 13 13 10
9 8 8 9 10 11 10 11 12 12 13 15 16 17 19 20 20 21 20 20 20 20 20 20 19 19 19 19 18 16 16 16 16 16 15 15 15 14 13 12 13 11
6 7 7 8 10 11 12 11 11 10 10 12 14 16 18 19 19 17 16 17 17 17 19 20 21 20 20 19 18 17 17 16 16 16 15 15 15 14 13 13 12 11
3 2 4 6 8 10 11 11 10 11 14 18 20 21 20 19 18 15 15 17 18 18 20 22 21 19 18 18 19 18 17 17 16 16 15 15 15 14 13 13 12 11
3 2 1 1 3 6 8 8 8 12 18 24 24 23 23 22 21 20 19 19 21 23 23 21 19 17 17 19 19 19 19 18 18 17 16 15 14 14 13 12 12 11
1 1 1 1 3 4 6 6 8 12 16 19 20 21 21 21 22 22 21 21 23 24 23 19 17 18 22 22 21 19 19 18 18 18 16 15 14 13 13 12 11 11
1 1 2 3 4 5 6 7 8 11 13 13 13 15 16 18 20 21 21 21 22 23 22 19 18 21 26 27 24 20 18 18 19 19 17 14 14 13 12 12 11 10
3 3 3 3 4 5 5 6 7 9 11 11 11 11 12 14 16 17 19 20 20 21 21 20 21 23 25 27 26 22 19 18 18 18 16 14 14 14 13 12 11 10
3 3 4 4 4 5 5 6 7 7 9 10 10 10 11 12 13 14 16 17 18 19 20 21 23 24 23 24 24 22 20 18 16 16 16 14 14 13 12 12 11 10
4 5 5 5 5 5 6 7 7 8 9 10 10 10 11 13 15 15 16 17 17 18 19 19 20 23 22 22 25 23 19 17 15 13 14 14 13 13 12 11 10 10
5 6 6 6 6 6 7 7 8 9 9 10 11 12 12 13 14 16 17 17 18 18 19 17 17 18 18 21 26 24 18 17 15 12 13 14 12 12 12 11 10 9
6 6 6 6 6 7 8 9 10 10 11 11 11 12 13 13 14 14 15 17 18 19 19 18 17 16 16 19 23 22 19 19 17 14 15 13 12 12 12 11 10 8
7 7 6 7 7 8 9 10 11 11 11 11 12 13 13 14 15 16 16 16 17 18 18 17 14 14 17 19 20 20 20 19 17 17 16 14 11 11 10 9 8 8
8 8 8 8 9 9 10 11 11 11 11 12 12 13 13 14 15 16 17 17 17 16 16 15 12 12 15 17 18 20 20 17 14 14 14 11 8 8 8 8 8 9
9 10 10 10 10 10 11 11 11 12 12 12 13 14 14 14 15 16 16 15 14 13 13 13 12 12 14 17 19 20 19 15 11 10 8 6 6 6 7 7 8 9
11 11 11 11 11 12 13 12 12 13 13 13 13 13 13 14 14 13 9 5 4 7 9 10 11 14 17 19 19 18 16 13 10 8 5 3 3 3 3 4 5 7
12 12 12 13 13 13 12 12 13 13 13 13 13 12 13 13 9 4 1 3 4 5 6 8 12 17 18 19 19 18 16 14 12 9 6 3 1 0 2 5 6 8

ECMWFNIL_925_spd_033.txt.gz
Wind_Speed
25 24 24 23 20 20 20 19 18 19 17 16 14 13 12 10 9 9 8 8 6 4 5 5 6 9 9 6 5 3 4 6 6 6 7 9 8 10 11 11 9 7
24 24 23 21 20 19 18 18 17 17 16 15 14 13 13 11 10 10 9 8 7 5 4 4 6 9 9 7 5 2 2 4 5 7 7 8 8 10 11 11 9 6
22 23 22 20 20 19 17 16 16 16 15 14 14 14 14 13 11 11 11 9 8 6 5 4 5 8 8 6 5 3 2 4 5 6 5 4 6 8 10 10 8 5
19 21 20 18 18 18 17 16 15 17 15 13 13 14 14 14 12 12 12 10 9 8 6 5 5 7 7 6 6 6 3 3 5 5 5 4 4 5 6 8 7 5
15 17 17 16 15 16 18 17 15 16 17 14 13 13 14 14 13 12 11 11 10 10 9 7 5 6 7 7 7 8 6 5 6 6 5 6 6 4 4 5 8 7
12 14 15 16 15 15 18 19 16 15 15 14 13 13 13 13 13 12 11 11 11 11 11 10 8 7 8 8 8 8 7 7 8 7 6 7 7 6 4 5 8 7
13 13 14 15 14 14 16 19 18 16 14 13 12 13 13 13 13 13 12 11 11 11 12 12 12 10 9 10 9 8 8 9 10 9 8 9 9 6 6 6 6 7
14 13 14 14 12 12 12 15 17 17 16 14 12 12 12 13 13 13 13 11 11 11 12 13 14 12 11 11 11 10 10 10 11 11 10 11 11 9 8 7 6 7
13 12 12 12 11 10 8 10 12 13 13 14 14 13 11 10 10 13 14 12 11 10 12 14 16 16 14 13 13 13 12 13 13 13 12 12 13 12 11 9 8 8
12 11 10 10 10 9 8 8 9 10 11 13 13 12 12 9 7 11 14 14 12 12 15 16 15 15 15 15 15 15 15 15 16 15 14 14 14 14 14 12 11 10
9 8 9 9 9 9 9 8 7 7 9 11 11 11 12 11 9 9 11 12 13 13 15 16 14 13 13 14 17 19 18 17 18 18 17 16 15 14 15 14 14 14
9 9 10 11 11 12 13 13 11 10 10 12 13 14 14 14 15 14 13 14 16 17 17 16 15 15 16 17 19 22 22 21 19 20 20 19 17 15 16 16 16 16
9 9 10 11 12 12 13 13 13 13 14 15 15 15 14 15 15 15 16 16 17 20 22 20 17 17 19 20 20 21 24 24 23 21 21 21 19 17 17 16 15 15
8 8 7 6 6 8 9 10 10 11 12 14 15 15 15 15 15 15 15 15 15 18 22 22 21 21 21 21 21 21 23 24 26 26 23 22 20 18 18 17 15 15
7 7 5 3 3 4 5 5 5 5 6 8 10 11 13 15 16 17 18 18 16 17 19 21 21 23 23 22 22 23 22 21 24 28 27 23 21 19 18 18 17 16
4 4 3 2 2 2 2 3 3 3 4 5 6 7 8 10 12 14 17 19 18 18 19 20 21 23 24 23 22 23 23 20 20 23 25 24 22 21 20 19 19 18
2 2 1 0 0 1 1 1 2 3 5 6 7 9 9 8 8 9 10 12 14 16 18 19 20 22 22 22 21 21 23 22 20 19 22 24 23 22 22 20 19 19
3 2 2 2 2 2 3 4 4 4 4 4 5 7 8 10 10 10 9 9 10 13 14 15 17 18 19 19 18 18 20 22 22 20 20 22 23 23 23 21 20 19
3 2 2 3 2 2 3 5 5 6 6 6 6 6 6 7 9 10 12 12 12 13 13 14 14 14 14 15 16 17 18 20 21 20 20 21 23 23 22 22 21 19
3 3 3 2 2 2 3 4 5 6 7 8 9 9 9 9 9 9 10 12 14 16 16 15 13 12 12 14 15 15 16 17 17 17 19 22 23 22 22 21 20 18
3 4 4 3 2 3 4 5 6 7 8 8 9 10 11 12 13 13 13 13 14 15 16 16 14 13 14 15 14 14 14 14 14 15 19 21 20 20 19 18 17 16
5 4 3 2 2 3 5 6 7 8 9 9 9 9 10 11 13 14 15 16 16 16 15 16 16 16 15 14 13 14 14 14 14 17 19 19 18 18 17 15 14 13
5 5 5 4 4 5 6 7 8 8 9 9 9 10 11 12 13 13 14 15 16 16 15 15 16 16 14 13 12 13 15 16 16 17 18 18 16 14 12 10 8 8
7 7 7 7 6 6 7 7 8 8 8 9 9 10 11 11 13 13 13 13 14 14 13 13 14 13 12 12 12 13 15 16 16 17 16 14 12 10 9 8 7 7
9 9 9 10 10 10 10 11 13 13 12 11 11 11 12 12 12 11 10 10 10 10 9 9 10 9 9 11 12 14 15 16 16 16 14 12 12 12 11 10 8 7
11 11 11 11 11 11 11 12 13 13 12 11 11 11 11 11 10 7 5 5 4 4 4 5 7 8 11 12 14 15 15 14 14 14 14 13 13 13 12 9 6 4

ECMWFNIL_925_spd_036.txt.gz
Wind_Speed
28 28 25 23 24 25 25 24 22 21 20 18 17 16 14 13 13 13 12 10 8 7 7 7 7 5 4 4 4 5 6 8 8 7 7 8 8 8 8 8 6 6
28 26 24 23 22 24 23 23 22 21 19 18 16 15 15 14 14 13 11 10 8 6 7 8 8 6 4 3 3 4 5 6 7 8 7 8 9 8 7 7 6 5
28 26 24 23 22 22 22 22 23 21 18 17 16 15 15 14 14 13 11 10 8 6 7 7 9 8 5 3 1 2 3 4 5 6 6 7 8 9 7 6 5 5
27 25 22 23 22 20 21 22 23 22 20 19 18 17 16 15 14 13 12 10 8 7 7 7 9 9 7 4 2 1 1 1 2 3 3 3 5 6 6 4 4 4
24 24 22 23 22 20 22 23 23 23 22 21 20 18 17 17 16 15 13 12 10 8 8 7 7 8 7 6 4 4 2 1 1 1 0 1 1 2 2 2 3 3
22 23 22 21 20 22 23 23 23 23 22 21 21 20 19 19 18 16 15 14 12 11 10 10 9 8 8 7 6 6 5 4 3 2 2 3 2 1 1 2 3 2
22 22 21 18 19 23 24 23 23 23 22 21 20 21 21 20 20 18 16 15 14 13 11 11 10 9 8 8 7 8 8 7 7 6 5 5 5 4 3 2 4 3
21 21 21 20 20 23 24 23 22 22 23 21 20 20 21 21 21 19 18 17 15 14 13 12 11 10 9 9 9 10 10 10 10 9 9 8 8 8 6 4 4 5
18 19 21 20 18 18 18 18 18 19 20 21 19 19 20 22 22 21 20 18 17 16 15 14 13 12 11 11 10 10 11 12 12 11 11 11 11 11 10 8 7 6
15 16 17 18 18 17 14 14 16 17 17 16 16 17 17 19 21 21 21 20 19 19 18 17 16 15 15 14 13 13 12 12 13 13 13 14 13 13 13 12 11 9
10 11 11 11 14 16 15 13 14 15 16 14 13 14 15 15 16 18 20 21 21 21 20 19 17 17 18 18 18 17 16 15 15 15 16 16 16 16 15 15 14 13
9 9 10 9 9 10 13 14 13 14 16 15 15 14 13 12 12 13 16 19 20 20 20 18 17 16 17 19 20 20 19 18 18 19 19 19 19 18 17 17 17 16
14 11 10 10 8 7 9 12 14 14 13 14 17 17 13 12 12 12 13 15 16 18 18 17 17 17 17 18 19 20 20 20 21 22 22 22 21 20 19 18 18 17
13 11 9 9 8 9 10 12 15 15 14 15 16 15 12 12 13 13 13 12 12 13 14 16 18 19 19 19 19 19 19 19 20 22 24 24 24 23 23 21 19 19
6 7 5 4 5 8 10 12 13 12 12 11 11 10 10 12 13 14 14 13 13 13 14 15 17 19 20 20 20 21 22 21 20 22 24 26 26 26 25 25 22 20
6 6 5 5 5 6 7 8 8 7 7 6 6 7 8 10 11 12 12 12 13 14 14 15 17 18 19 19 20 20 22 22 22 22 24 26 26 26 27 26 24 23
6 7 5 4 4 4 4 3 3 2 2 2 2 3 4 5 7 8 9 9 10 10 11 13 14 16 17 17 17 18 20 20 21 22 23 24 24 25 27 27 26 24
5 5 4 3 4 4 3 3 3 3 3 3 3 3 3 3 3 5 6 8 9 10 10 10 10 10 11 13 14 15 17 19 20 21 21 20 20 22 25 26 26 25
3 3 3 3 3 4 4 4 4 4 4 5 5 5 4 5 5 5 6 7 8 9 10 11 11 10 9 10 11 11 13 15 17 18 19 20 20 20 21 24 26 27
1 0 0 0 1 1 1 1 2 3 4 5 6 6 6 6 6 7 8 8 9 9 9 10 11 11 12 12 11 11 11 12 13 15 16 17 19 20 21 23 26 27
2 3 3 3 2 2 3 3 4 5 5 6 7 7 7 7 7 8 8 9 10 10 10 11 11 11 13 14 13 12 12 11 11 12 13 14 16 20 21 23 25 25
2 1 1 1 2 3 4 5 6 7 7 8 8 8 8 8 8 8 9 10 10 11 12 12 12 12 12 14 15 14 13 12 10 10 12 13 16 17 18 20 21 20
5 4 4 3 2 2 3 4 5 7 7 8 8 9 9 9 9 10 10 11 11 12 13 13 13 12 12 14 16 15 14 12 10 10 11 11 11 12 14 15 15 14
6 6 6 6 6 7 7 7 7 8 8 8 9 9 9 10 10 11 11 12 13 13 13 13 13 12 11 12 14 13 12 12 12 12 13 14 14 15 14 14 13 12
7 8 9 9 10 10 9 9 9 9 10 11 12 12 11 10 10 10 11 11 12 12 12 11 11 10 9 9 10 9 10 12 13 14 16 16 15 15 13 11 10 9
8 9 10 10 10 10 10 10 10 10 9 10 11 11 11 10 10 10 9 9 9 9 9 9 8 7 5 5 6 7 9 11 13 15 16 16 14 13 12 10 8 7

ECMWFNIL_925_spd_042.txt.gz
Wind_Speed
21 18 16 14 13 13 12 12 11 10 9 7 6 5 5 5 4 3 2 1 1 2 2 3 4 5 6 6 6 7 8 9 10 10 9 10 9 9 9 9 8 8
22 20 17 15 14 13 12 12 11 10 9 7 6 5 4 4 3 3 2 0 1 1 0 0 1 2 4 5 5 6 7 8 9 9 9 10 10 10 10 10 9 9
22 21 19 16 15 14 13 12 11 9 8 7 6 5 4 3 3 4 2 1 1 2 2 2 2 2 2 3 4 4 5 6 7 8 8 9 9 10 11 11 11 12
23 21 19 17 16 14 13 13 11 9 8 7 6 5 5 4 4 4 4 3 2 2 4 4 4 3 1 2 3 3 4 5 5 6 7 9 8 8 10 11 11 12
23 21 19 18 17 16 14 14 13 10 8 7 5 5 6 5 5 5 5 5 4 4 4 5 5 4 3 2 2 2 2 3 3 3 4 6 7 7 8 8 10 11
23 22 21 20 19 17 15 14 13 12 10 8 6 5 6 7 6 6 6 6 6 5 5 6 6 6 5 4 4 3 3 2 1 2 2 3 4 5 5 6 8 9
23 23 23 22 20 18 16 15 14 14 13 10 7 8 9 9 9 9 8 9 8 7 7 6 7 7 7 7 7 6 5 4 3 2 1 1 1 2 3 4 5 7
21 23 23 21 20 18 17 16 15 15 15 12 10 11 13 11 11 10 11 12 12 11 10 9 8 7 8 9 10 10 9 8 7 6 4 3 2 1 1 2 2 3
18 20 21 20 19 18 17 17 16 16 14 12 11 13 15 15 13 13 14 14 14 14 14 12 10 8 8 10 12 14 14 12 10 10 8 7 6 5 3 3 3 3
15 16 17 17 17 17 17 16 16 15 14 12 12 13 14 14 14 14 15 17 18 18 17 15 13 11 10 11 13 15 16 16 15 13 12 10 9 9 8 7 6 5
14 15 14 14 15 16 16 16 15 14 15 14 12 11 10 11 12 12 14 18 20 20 20 20 18 16 14 13 14 15 16 18 19 18 15 13 12 11 11 10 10 9
13 14 14 14 15 15 16 16 14 11 12 12 10 9 9 9 11 12 15 20 21 20 20 21 21 20 18 17 17 16 15 16 20 21 19 17 15 14 13 13 13 12
12 12 12 13 15 15 14 14 12 9 8 9 9 9 9 11 14 14 14 17 21 21 19 18 18 18 18 19 19 19 17 17 20 23 22 20 18 17 15 15 14 14
11 10 10 11 12 11 9 10 11 10 10 10 9 8 10 12 14 13 12 14 18 18 17 16 15 16 16 17 17 18 19 20 22 23 22 20 20 19 18 16 16 16
10 10 9 8 8 8 8 10 10 10 11 10 9 9 11 11 11 12 13 14 16 16 15 14 14 14 14 14 15 16 17 19 20 20 20 19 19 19 18 18 17 18
10 10 8 6 7 7 7 7 7 8 8 7 7 7 9 9 9 9 10 11 12 12 11 10 10 11 11 12 13 14 16 17 17 17 16 17 17 18 18 18 18 18
9 9 8 8 8 8 8 7 6 6 5 4 4 5 5 5 5 5 5 6 7 7 6 6 6 6 7 8 9 10 11 12 13 13 14 14 15 16 16 16 15 15
10 9 10 10 11 11 11 10 10 9 9 8 7 6 5 4 3 2 2 1 1 1 2 3 4 5 5 6 7 7 8 9 10 11 11 12 13 13 13 13 12 13
11 11 11 13 14 14 14 13 13 12 12 11 11 10 9 8 7 6 5 4 4 4 5 5 6 6 7 7 7 7 7 8 9 10 11 11 11 11 11 11 12 13
11 12 13 14 15 15 15 14 13 13 12 11 10 9 9 8 8 6 5 5 4 5 5 6 7 8 9 9 9 10 9 9 9 9 10 10 11 11 10 11 12 13
10 11 12 13 13 13 13 12 12 10 9 8 7 7 7 6 5 4 4 3 4 4 6 7 8 9 10 10 11 11 11 11 10 9 9 10 11 11 11 11 11 12
11 11 12 11 11 11 11 11 10 9 8 7 6 6 5 4 4 3 2 2 3 5 6 7 8 8 8 9 9 10 10 11 11 10 10 10 10 11 11 11 11 11
11 12 12 12 11 11 11 11 10 10 9 8 7 6 5 3 2 1 1 2 3 4 6 8 8 8 8 8 9 10 10 10 10 10 10 9 8 9 9 9 9 8
6 7 9 10 10 11 10 10 10 9 9 8 6 5 4 2 1 0 1 2 3 4 6 8 8 8 9 10 11 11 10 10 10 10 9 8 6 6 5 5 4 3
3 3 4 5 6 7 7 7 7 7 7 6 5 4 3 2 1 1 2 3 4 5 6 7 7 8 8 9 10 10 9 9 9 8 7 6 4 2 1 1 2 3
6 5 3 2 3 4 4 4 4 4 3 2 2 2 2 2 2 3 4 5 6 6 7 7 7 7 8 8 8 8 7 7 7 7 5 4 3 2 3 4 5 6

ECMWFNIL_925_spd_045.txt.gz
Wind_Speed
16 14 12 10 11 12 12 12 11 10 9 9 9 9 8 8 7 7 6 7 7 7 8 9 10 10 9 8 6 5 6 6 6 6 5 5 6 6 7 7 8 9
18 16 14 12 12 13 12 11 11 11 10 9 9 8 8 7 7 6 6 6 6 6 7 7 8 9 10 9 8 7 6 6 6 6 5 5 6 6 6 7 7 8
20 19 16 14 13 14 14 12 11 12 11 10 9 8 7 7 6 6 5 6 6 6 6 6 7 7 9 9 10 9 8 7 6 6 6 6 7 6 6 7 7 8
22 20 17 15 13 14 14 13 13 12 11 10 9 8 7 6 6 5 5 5 5 5 5 5 5 6 6 8 9 9 8 7 6 6 6 6 7 7 7 7 7 8
21 20 18 16 15 14 15 14 13 13 11 10 8 8 7 6 5 5 4 3 3 3 4 5 5 5 5 5 6 7 7 6 6 5 5 5 5 5 6 6 6 7
20 19 18 17 15 15 15 14 13 13 12 11 10 9 7 6 6 5 4 3 2 2 2 2 3 3 3 3 4 4 4 4 4 4 3 3 3 3 3 4 4 4
19 19 18 17 16 16 16 15 14 14 12 11 11 10 9 7 6 5 5 3 2 1 1 1 1 2 2 3 3 3 3 2 3 3 1 1 2 2 2 2 2 3
19 20 19 17 16 16 16 16 15 14 13 12 11 10 9 8 6 4 3 2 1 1 2 3 3 4 4 4 4 4 4 3 4 4 4 4 3 1 1 0 1 2
17 18 18 17 17 17 17 16 15 14 13 12 11 9 8 7 6 3 2 1 1 2 4 5 6 6 5 5 6 6 6 6 6 6 6 6 6 4 4 4 3 3
14 15 15 15 16 16 17 17 16 14 13 12 11 8 7 6 6 5 4 3 2 4 5 6 8 7 7 8 10 10 9 8 8 9 9 9 9 8 7 7 7 6
12 12 12 12 13 15 17 17 16 15 13 12 11 9 7 6 6 6 7 6 6 6 7 9 8 8 7 9 12 15 14 12 11 11 11 11 11 11 10 10 10 9
11 12 11 11 12 15 17 18 17 16 14 13 12 9 7 7 7 8 8 8 9 9 9 9 9 10 10 10 12 14 14 14 14 14 13 13 12 13 13 13 14 13
13 13 13 14 15 16 18 18 17 16 14 12 10 8 7 6 7 7 7 8 9 10 10 10 10 11 12 11 11 12 12 13 13 14 15 16 16 15 13 13 14 15
12 12 13 15 16 17 17 16 15 14 12 9 8 8 7 5 5 6 7 8 9 9 9 8 8 8 9 10 10 10 10 9 10 11 13 14 15 14 12 12 13 14
10 11 12 14 15 16 15 14 13 12 10 9 9 8 7 6 7 7 8 8 8 8 8 7 6 6 7 7 7 7 7 8 8 9 10 11 12 12 11 11 11 11
11 12 13 13 14 14 14 13 13 12 11 11 10 9 8 7 8 8 8 7 6 6 5 5 4 4 4 5 5 6 6 6 6 7 7 8 9 10 10 10 10 12
11 11 12 12 13 13 13 13 13 12 11 11 10 8 7 7 7 6 6 5 4 4 3 3 2 1 1 1 2 3 4 5 5 5 5 5 6 7 8 8 8 11
10 10 11 11 12 13 12 12 12 11 11 10 9 8 7 7 7 6 6 6 6 6 6 6 6 6 5 4 4 3 3 4 4 5 5 5 5 5 6 5 5 7
9 10 10 10 10 10 10 10 10 10 10 10 9 9 9 10 11 10 10 10 10 11 10 9 9 8 7 6 5 5 5 5 5 5 5 5 6 6 6 5 4 6
8 8 9 9 9 9 9 11 12 12 12 12 12 13 13 14 14 13 13 12 11 10 10 9 8 7 6 6 5 5 5 5 5 5 5 5 6 7 6 6 5 6
9 10 10 10 10 11 12 13 14 14 13 13 13 13 13 13 12 12 11 10 9 8 8 8 7 6 6 6 6 6 5 5 6 6 6 6 5 6 6 7 6 7
10 11 11 11 11 12 13 12 12 12 12 13 12 12 12 11 11 10 9 8 8 8 8 8 7 7 6 6 7 7 6 5 5 6 6 6 5 5 5 5 5 5
9 8 8 9 9 10 11 11 11 11 12 12 12 12 11 10 9 8 7 7 6 6 7 7 7 6 6 6 7 8 7 6 6 6 6 6 5 5 4 4 3 3
5 4 4 5 6 8 9 10 11 11 12 12 11 11 10 9 8 7 6 5 4 4 4 4 4 4 4 6 7 7 7 7 6 6 5 5 4 4 4 4 4 4
8 8 10 11 11 11 11 10 10 10 10 10 9 8 8 8 7 6 5 4 3 2 2 2 2 2 3 5 5 5 6 7 6 5 4 3 3 3 3 4 5 4
9 11 11 12 12 12 11 10 10 9 9 8 7 6 6 5 4 4 3 2 1 0 1 1 1 1 2 3 4 4 4 5 5 4 2 1 1 2 4 5 5 5

ECMWFNIL_925_spd_048.txt.gz
Wind_Speed
15 13 11 10 11 12 13 12 12 12 12 12 11 10 9 8 7 7 8 8 9 9 9 9 9 9 9 8 8 8 8 8 7 7 7 7 7 7 7 7 7 7
16 15 12 11 11 13 14 15 14 12 12 13 13 11 10 9 8 7 8 8 8 8 8 9 9 9 9 8 8 8 8 7 7 7 7 7 7 7 7 7 7 7
17 17 15 13 13 15 15 16 16 14 14 15 15 13 11 10 9 8 8 8 8 8 8 8 8 8 9 9 8 8 7 7 7 6 7 7 7 7 7 7 7 7
18 17 16 13 13 15 16 16 17 17 17 16 15 14 13 11 10 10 9 9 9 8 8 7 7 7 8 8 8 8 7 7 6 5 6 6 6 7 7 6 7 7
17 17 14 11 12 15 16 17 17 17 17 15 14 14 14 13 11 11 10 9 9 9 8 8 7 7 7 7 7 7 6 6 5 5 5 5 5 5 5 6 6 6
17 15 12 10 12 15 16 17 17 16 16 15 13 13 14 13 12 11 10 10 10 9 9 8 7 7 6 6 6 5 5 5 4 4 4 5 5 4 4 4 4 5
14 13 12 10 12 15 16 16 16 15 15 15 14 14 14 13 12 11 11 11 10 10 9 9 8 7 6 5 5 5 4 4 4 3 3 4 4 3 4 3 3 3
11 12 13 11 12 15 16 15 15 15 15 15 15 14 14 14 13 12 11 10 10 10 9 8 8 7 6 5 5 5 4 3 3 2 2 2 2 2 2 2 2 2
11 12 13 13 14 15 15 15 15 14 14 15 14 14 13 13 13 13 12 11 10 10 9 8 7 7 6 5 5 4 3 2 2 2 1 2 1 1 2 2 1 1
11 12 14 14 14 14 15 15 14 14 14 14 14 13 13 12 13 13 12 12 11 11 10 10 9 8 6 5 5 4 2 2 2 2 2 2 2 2 2 2 2 2
12 12 13 14 13 13 14 15 15 14 14 14 14 14 13 12 12 12 12 11 11 11 11 10 9 9 7 7 6 4 3 3 4 4 4 4 4 3 3 3 3 4
11 10 10 11 11 11 12 14 14 14 14 14 14 13 13 12 12 12 11 10 10 9 9 9 8 7 7 7 6 5 4 4 4 5 5 5 5 4 4 4 5 6
10 9 8 9 9 10 10 11 12 13 14 14 13 13 12 12 11 11 11 10 9 9 8 8 7 6 6 6 5 5 5 4 4 5 5 5 6 5 4 4 4 5
10 10 11 11 10 10 10 10 11 12 13 12 12 11 10 10 10 10 9 8 9 8 7 7 6 6 5 5 5 5 4 4 3 4 4 5 5 4 3 4 5 6
9 10 11 10 8 8 9 10 10 11 11 10 9 7 7 7 7 8 8 7 7 7 6 6 5 5 6 6 6 4 3 3 3 4 4 4 4 4 4 6 8 8
7 8 8 7 7 7 9 10 10 10 10 10 9 8 7 7 6 6 7 7 7 6 6 5 4 5 6 6 5 4 3 2 3 3 3 3 4 4 4 5 7 7
6 6 6 6 7 7 8 8 8 9 9 9 9 8 8 9 8 5 5 5 6 6 5 4 4 4 4 3 3 3 3 3 2 1 1 2 2 3 3 4 4 3
4 4 4 4 5 5 5 5 5 6 7 7 7 6 6 6 6 4 4 4 5 6 5 6 6 7 7 6 5 4 4 3 1 0 1 1 1 1 1 2 2 1
4 4 4 4 4 4 5 5 5 5 6 7 7 6 5 5 4 5 6 6 7 8 8 9 10 9 8 6 5 4 3 3 2 1 0 0 1 1 1 1 1 2
5 5 5 5 5 5 5 7 7 7 7 7 7 8 8 7 7 7 8 9 9 10 9 9 9 8 7 6 5 3 2 2 2 1 1 0 0 1 2 2 2 3
7 6 6 6 6 6 7 8 8 8 9 8 8 9 10 10 9 10 10 9 9 9 9 9 9 8 7 6 5 4 3 3 2 2 2 1 1 0 1 2 2 3
8 8 8 8 8 8 8 9 9 9 9 9 9 10 10 10 10 10 9 9 8 8 8 9 9 8 7 7 6 5 5 4 2 2 3 3 2 2 2 1 1 1
7 8 9 9 9 8 8 9 9 9 9 9 9 9 9 9 9 9 8 8 8 7 7 8 9 8 7 6 6 6 5 3 1 2 3 3 3 3 3 2 3 3
4 6 7 7 7 8 8 8 8 9 9 9 9 9 9 9 9 8 8 8 7 7 7 8 8 8 6 6 5 6 5 2 0 2 3 3 4 4 4 4 5 6
3 4 4 6 7 7 8 8 9 9 9 9 8 9 9 9 8 8 8 7 7 8 8 7 8 8 7 6 5 5 5 2 1 1 2 2 3 4 6 6 6 5
6 7 7 8 9 9 10 10 10 12 12 10 10 9 9 8 8 7 7 7 7 9 8 7 7 8 7 6 5 5 5 2 1 1 1 1 2 4 5 7 6 5

ECMWFNIL_925_spd_051.txt.gz
Wind_Speed
10 11 12 12 13 12 12 12 12 12 12 12 12 12 12 10 10 10 10 10 9 9 9 8 8 8 8 8 8 8 8 8 9 9 9 9 9 10 10 10 10 9
9 10 11 12 12 12 11 11 11 12 12 12 13 13 13 12 11 10 10 10 9 9 9 9 8 8 8 8 8 8 8 8 8 9 9 9 9 9 9 9 9 9
8 9 9 10 12 12 12 11 11 11 11 12 13 14 14 13 12 11 10 10 10 9 9 9 8 8 8 8 8 8 8 9 9 8 9 9 9 9 9 9 9 9
8 8 9 10 11 12 13 13 12 11 11 12 13 13 14 14 13 12 11 10 10 10 9 9 8 8 8 8 8 8 8 8 8 7 8 8 8 8 8 8 8 8
9 9 9 10 11 12 13 14 13 13 12 12 12 13 14 14 14 13 11 10 10 10 10 9 9 8 8 7 7 7 7 6 6 6 7 7 7 7 7 7 7 7
12 11 11 11 12 13 14 13 13 14 14 12 12 12 13 14 14 13 12 11 10 10 10 10 9 9 8 7 6 6 6 6 5 5 6 6 5 5 5 5 5 6
15 15 13 13 14 14 13 13 13 14 14 12 12 12 12 13 13 13 13 12 11 10 10 10 9 9 8 7 6 6 5 5 4 4 4 5 4 4 4 4 3 4
17 17 15 14 14 14 13 14 14 14 14 13 13 13 13 13 13 13 13 12 11 11 10 10 10 9 9 8 7 7 6 5 4 3 3 3 3 2 3 3 2 2
17 16 15 15 15 14 14 14 15 15 14 14 14 14 14 13 14 14 13 12 12 11 10 10 10 9 9 9 9 8 7 6 5 5 4 4 3 2 3 3 2 1
16 14 14 15 15 15 15 15 15 15 15 15 14 14 15 14 14 14 14 13 12 11 11 10 10 10 9 9 9 8 7 7 6 6 6 6 5 4 3 3 3 2
15 13 13 16 17 17 17 17 16 15 15 15 15 14 14 14 14 14 14 13 12 11 11 10 10 10 10 9 9 8 6 6 7 6 7 7 7 6 5 5 4 4
13 12 12 14 15 14 14 14 15 15 14 14 14 15 15 14 14 14 13 13 12 11 11 11 11 11 10 9 8 8 7 7 7 7 8 8 8 8 8 7 7 6
10 10 11 11 11 11 10 8 10 13 15 14 15 15 15 15 14 13 13 12 12 11 11 11 11 10 10 9 8 8 8 8 8 9 9 9 9 9 8 7 7 7
10 8 8 9 10 12 13 11 12 15 15 15 16 16 15 14 14 14 13 13 12 12 11 10 10 9 8 8 8 8 8 9 9 10 11 11 10 8 6 5 5 5
11 9 8 8 8 11 14 16 16 14 12 10 10 11 11 10 10 8 8 10 9 9 9 9 8 7 6 7 8 8 8 9 10 10 11 9 7 7 6 4 4 5
11 10 9 9 9 10 13 14 11 9 10 9 7 6 6 7 7 5 5 8 8 8 8 7 5 4 6 9 10 9 9 8 7 7 7 4 4 4 4 3 4 4
11 10 8 8 9 11 12 12 9 7 9 10 9 7 6 6 5 5 6 8 9 10 8 5 3 4 7 9 9 8 7 5 3 3 2 2 4 3 3 4 3 4
11 10 8 8 8 10 10 10 8 7 8 9 9 9 8 8 7 7 8 7 7 7 6 4 4 5 6 7 6 6 6 3 1 1 0 1 3 3 4 4 4 4
8 8 8 7 6 7 8 8 7 6 7 7 7 8 8 8 8 7 7 6 5 5 4 5 8 9 9 8 7 6 6 4 1 1 1 1 2 2 2 2 2 2
6 7 7 6 6 5 6 7 7 6 8 8 8 8 8 8 7 7 6 5 6 8 11 11 12 11 9 8 6 4 3 3 1 1 1 2 2 1 1 1 1 1
6 7 7 7 7 6 5 6 6 6 8 9 9 9 9 8 9 9 8 7 8 10 11 11 10 9 8 6 5 3 3 4 3 1 1 2 2 1 1 1 1 2
7 6 6 6 7 7 7 6 7 8 8 9 8 8 8 9 10 10 10 8 8 9 9 10 10 8 7 6 5 5 5 4 2 2 3 3 2 2 3 2 1 1
5 4 4 4 5 6 7 7 7 8 8 8 8 8 8 9 9 9 9 9 8 9 9 9 9 8 7 6 6 6 6 3 3 3 4 3 2 3 3 1 2 2
4 3 3 3 3 4 5 5 5 6 6 6 7 7 7 8 8 8 8 8 8 9 9 10 9 8 7 6 5 6 6 3 3 3 3 2 3 4 4 2 4 5
2 1 0 1 2 2 3 4 3 4 4 5 6 7 7 8 8 8 8 8 8 8 9 10 10 8 8 6 5 5 5 3 4 4 3 2 2 3 4 4 3 3
2 3 3 4 4 4 4 5 5 5 5 6 6 7 8 8 9 9 9 9 8 8 8 9 9 10 9 7 6 5 5 3 4 4 4 4 4 4 5 6 5 2

ECMWFNIL_925_spd_054.txt.gz
Wind_Speed
16 15 15 15 15 15 14 14 15 15 14 14 13 13 12 11 10 10 10 10 10 11 11 10 10 10 11 11 11 12 12 13 14 13 14 15 14 14 14 13 13 13
17 16 16 15 15 14 14 15 15 14 14 14 14 14 13 12 11 11 11 11 10 10 10 10 10 10 10 11 11 12 12 13 13 13 13 14 14 13 13 13 14 14
19 17 17 16 16 15 15 15 14 14 14 14 14 14 14 13 12 12 11 10 10 10 10 10 10 10 10 10 11 11 12 13 12 12 13 13 13 13 13 14 15 14
19 17 16 18 18 17 17 17 16 15 15 15 14 14 14 13 13 12 11 10 10 10 10 10 9 9 9 9 10 11 11 11 11 11 12 13 12 13 13 13 14 13
19 15 14 18 19 18 18 19 17 15 15 15 14 14 13 13 13 12 12 11 10 9 8 8 8 8 8 8 9 9 9 9 10 10 11 11 11 11 12 12 12 12
16 15 14 16 18 18 19 19 17 16 16 15 15 14 13 13 12 12 12 11 10 9 8 7 7 7 6 6 7 7 7 8 8 9 9 9 9 9 10 9 9 11
16 16 14 15 16 16 18 17 16 17 16 16 15 14 13 13 12 11 11 11 11 10 8 7 6 6 5 5 5 5 6 6 6 6 6 7 8 8 7 7 7 9
18 16 15 16 16 16 16 16 16 17 17 15 15 13 13 12 11 11 11 10 10 10 9 8 6 6 5 4 4 5 5 4 4 4 5 6 5 5 5 6 6 7
15 14 13 14 16 17 16 15 15 17 15 14 14 13 12 11 10 10 10 9 9 10 9 8 8 7 6 5 4 4 3 3 3 3 4 4 3 2 4 6 5 5
12 14 15 15 14 14 15 15 15 15 14 13 12 12 11 10 10 10 10 9 9 9 9 8 8 8 6 5 5 5 3 3 2 2 3 3 2 2 3 5 5 4
14 16 19 14 8 6 11 16 16 15 15 13 12 11 11 10 10 11 10 10 9 9 9 10 9 9 8 6 6 5 4 4 4 3 3 2 1 2 1 2 4 3
15 16 17 12 8 9 13 15 16 16 15 14 13 11 11 11 10 11 11 10 9 6 5 5 7 10 10 8 7 7 5 4 2 1 2 4 5 5 4 2 0 0
13 16 18 17 17 19 17 12 13 16 15 14 14 12 12 12 10 10 10 8 6 2 6 9 5 3 6 6 7 7 6 6 5 3 3 7 8 5 4 4 1 2
14 15 17 20 22 22 19 12 10 14 16 15 14 14 14 12 9 8 8 5 2 1 4 8 5 3 8 8 7 8 8 8 7 6 8 10 9 5 4 5 4 3
15 17 17 19 20 19 17 10 7 10 15 15 14 14 13 11 8 5 5 4 2 4 3 4 3 7 10 8 6 6 8 6 5 8 11 10 8 6 5 5 5 5
15 19 17 14 13 14 13 9 6 9 12 13 13 12 11 11 8 4 2 2 2 2 3 2 5 7 8 7 6 5 6 5 4 7 9 6 4 6 7 6 6 6
11 13 14 13 12 12 13 11 11 11 11 11 11 9 9 10 8 4 3 3 2 2 5 8 11 10 8 8 7 7 6 4 4 3 3 2 4 6 7 7 7 7
8 10 10 10 10 11 12 12 11 10 9 10 10 9 10 10 9 8 6 5 4 3 6 9 10 9 8 7 6 6 5 3 4 5 4 3 5 6 6 7 7 7
10 11 10 9 9 11 11 10 9 9 8 9 10 10 9 9 9 8 8 8 8 8 9 9 9 7 6 5 5 6 6 5 4 5 6 5 6 6 6 7 8 8
7 8 8 8 8 10 10 9 9 9 8 8 10 10 8 8 9 10 11 11 10 9 8 8 8 8 8 8 9 9 8 5 4 4 5 6 6 5 4 5 4 5
9 8 8 7 7 8 9 7 8 9 8 8 8 8 8 8 10 11 11 11 12 11 10 11 11 11 10 9 9 8 7 7 7 6 6 7 5 5 5 5 5 5
12 11 12 12 13 12 10 6 6 8 9 10 8 7 8 8 9 11 12 16 17 15 14 15 13 12 10 9 8 8 10 11 9 7 8 8 6 5 5 6 6 6
9 9 9 11 15 17 15 11 9 9 8 8 9 9 10 10 10 11 14 18 19 15 15 15 13 11 11 10 10 11 12 12 9 8 11 10 8 6 4 4 5 6
10 8 7 6 7 11 15 16 15 14 12 12 11 12 12 13 13 13 14 17 18 15 14 14 14 12 11 11 11 11 12 10 7 8 13 13 10 7 4 3 5 6
12 10 7 6 6 5 7 10 10 10 12 14 14 14 16 16 16 15 15 16 17 17 15 14 14 14 12 11 11 11 12 10 5 4 12 15 13 11 8 6 7 7
10 9 7 6 6 7 4 1 2 3 4 6 9 11 13 16 17 17 17 16 16 18 17 14 14 13 12 12 12 12 13 10 3 1 8 14 14 13 13 11 10 8

ECMWFNIL_925_spd_057.txt.gz
Wind_Speed
26 26 25 25 24 23 21 22 22 20 20 20 20 19 19 18 17 17 17 17 17 17 17 17 17 17 17 16 17 17 16 16 16 16 18 18 17 17 15 14 15 15
24 23 22 23 23 22 20 20 20 20 20 21 20 20 19 18 17 17 18 19 19 18 17 16 16 16 17 17 17 17 16 16 17 16 17 18 18 17 15 14 14 14
21 21 22 22 22 22 20 19 19 20 21 21 20 20 19 18 19 19 19 19 19 18 18 17 17 17 17 17 17 17 17 17 16 16 17 18 18 17 17 16 16 14
19 20 21 21 21 20 20 20 20 21 21 21 20 19 19 20 20 19 18 18 18 18 18 18 18 17 17 17 17 17 17 16 16 17 18 18 17 16 16 15 15 15
17 18 20 20 20 20 21 20 21 21 21 21 20 19 19 20 19 18 17 18 18 17 17 18 17 16 17 17 17 17 16 15 15 16 17 17 15 14 14 14 15 15
13 16 20 21 20 21 21 20 20 21 21 20 20 19 19 19 18 16 16 16 16 16 17 18 16 15 16 16 16 15 15 15 14 12 12 12 13 13 12 13 15 15
13 15 19 22 22 22 20 18 19 20 19 19 18 18 18 18 17 15 15 14 14 14 16 17 15 14 13 13 14 13 11 12 11 11 12 11 11 11 11 11 12 12
13 14 17 19 20 20 18 16 17 18 18 18 18 17 17 16 16 15 14 13 13 13 13 13 13 13 11 11 12 11 9 8 9 11 12 10 9 9 9 9 9 9
13 13 15 16 16 17 16 16 17 17 17 17 17 17 16 15 15 14 13 13 12 12 11 10 11 11 9 9 10 10 8 9 11 11 9 8 8 9 9 8 8 9
10 11 14 14 12 13 13 13 16 16 15 16 16 16 16 15 14 14 13 12 11 11 10 10 11 10 9 10 10 10 9 8 10 10 8 7 8 10 10 9 9 9
9 10 13 13 10 12 13 12 14 15 14 15 16 15 15 13 13 13 12 11 11 12 12 13 13 13 12 12 11 10 10 9 8 8 7 5 5 7 9 9 9 8
15 14 14 16 15 16 17 17 17 16 15 16 15 14 14 11 11 12 11 11 11 12 13 12 13 14 13 11 11 10 10 9 7 7 6 5 4 5 6 6 6 7
15 15 16 20 20 18 17 16 18 18 16 16 14 13 13 12 13 14 14 13 12 11 11 10 11 13 13 11 11 10 10 9 7 7 7 7 7 7 7 7 7 8
13 14 17 19 18 15 13 12 15 18 17 16 15 15 15 14 15 16 15 15 13 12 10 9 10 13 13 11 10 9 9 8 7 7 8 8 8 9 8 8 8 9
13 13 17 17 14 13 13 9 9 14 16 16 16 17 16 15 15 14 14 14 13 11 10 9 10 11 13 13 11 9 9 8 6 6 7 9 9 9 9 8 8 9
14 14 16 19 18 16 16 14 12 14 16 16 15 16 17 16 15 13 12 12 11 10 9 9 9 9 10 11 11 9 8 6 5 6 7 8 9 9 9 9 8 7
11 10 11 16 18 16 17 19 17 12 12 14 13 13 15 15 14 13 11 10 9 9 9 10 9 8 8 10 10 9 7 5 5 5 5 6 8 8 9 9 8 7
11 12 11 12 14 15 16 18 16 10 8 11 11 11 13 13 12 11 10 9 9 10 11 11 10 9 9 10 10 8 7 5 6 6 6 7 8 9 9 9 9 9
13 14 13 11 10 12 15 16 17 16 13 11 11 11 12 13 12 11 11 11 11 12 12 11 10 9 9 10 10 9 8 7 7 8 8 8 10 11 10 9 10 11
9 8 8 9 9 12 15 17 18 18 16 13 12 13 13 13 13 12 12 11 12 12 12 11 10 9 9 10 11 11 11 10 9 8 8 7 8 9 9 9 10 12
11 8 7 8 10 11 13 13 13 14 13 12 13 14 13 13 13 12 12 12 13 13 13 11 10 10 11 12 13 14 13 11 10 10 10 10 10 11 11 11 12 14
19 19 16 15 14 13 11 11 12 11 11 11 12 13 12 11 13 13 13 15 15 13 12 12 13 14 14 14 15 14 13 12 12 12 14 14 14 13 13 13 14 16
12 18 20 20 19 18 16 14 14 14 13 12 12 13 12 11 12 13 14 15 15 13 14 16 17 17 15 15 15 14 14 14 13 14 16 14 12 12 11 12 13 14
17 11 8 9 12 15 15 15 15 15 15 14 13 13 13 13 13 13 14 14 14 13 15 16 16 15 14 14 14 15 17 15 12 14 18 17 13 12 11 10 11 11
23 21 18 14 9 3 5 9 11 11 12 13 13 13 13 13 14 14 14 14 13 12 13 14 14 14 14 14 15 16 17 13 8 12 19 18 15 14 13 12 12 11
21 21 20 19 16 14 9 3 3 7 10 12 12 12 13 14 15 17 17 18 16 14 13 14 15 15 15 15 15 16 15 11 8 13 20 20 17 16 16 14 14 13

ECMWFNIL_925_spd_060.txt.gz
Wind_Speed
30 30 29 27 26 25 25 25 23 22 21 20 20 18 17 16 16 17 17 17 17 18 16 15 14 13 13 13 14 16 17 17 17 15 15 15 15 16 17 17 16 14
28 28 27 25 25 25 25 24 23 21 20 19 19 18 18 16 16 17 17 17 17 17 17 15 14 14 16 16 17 19 19 18 17 15 14 14 14 15 16 17 18 18
26 26 26 25 25 25 24 23 22 20 20 19 20 19 18 17 16 18 18 17 17 18 17 15 15 16 17 16 17 19 20 19 17 15 14 14 14 15 14 15 17 19
26 26 25 25 24 23 23 24 23 22 21 21 21 20 18 17 17 18 19 18 18 17 16 15 16 16 16 15 16 19 20 19 17 16 17 17 15 15 14 14 16 18
26 26 25 24 23 22 24 25 24 23 23 23 22 19 18 18 19 19 19 18 17 16 15 15 15 16 16 16 16 17 19 19 17 17 17 16 14 14 14 14 15 16
26 24 24 24 23 24 25 25 24 24 24 23 21 18 18 19 20 19 19 18 17 17 16 16 17 17 16 16 16 17 18 19 17 16 15 14 13 12 12 13 15 15
26 25 25 25 24 24 24 23 24 24 23 22 19 17 19 20 19 19 19 19 18 18 17 17 17 17 16 15 16 17 17 17 15 14 14 13 12 12 11 11 13 13
25 25 25 25 24 22 21 22 24 24 22 20 18 17 19 19 18 19 18 17 18 18 17 17 17 17 16 16 16 16 15 15 14 14 14 13 12 12 11 9 9 10
22 23 23 23 24 22 21 23 24 23 21 20 19 18 18 17 17 18 17 17 19 19 17 17 17 16 16 15 14 14 15 16 16 15 15 14 13 12 10 9 7 8
22 23 23 22 21 21 22 23 22 22 22 20 20 20 18 17 17 16 16 18 19 18 16 16 16 16 17 16 13 13 16 17 16 15 14 13 13 13 12 10 9 9
22 21 20 20 19 18 20 21 21 21 21 19 20 21 19 18 17 17 17 18 18 18 17 16 15 16 18 17 14 13 16 17 16 14 13 13 13 13 12 12 11 10
21 19 18 20 20 18 19 20 20 18 17 18 20 22 21 19 19 19 19 18 18 18 18 17 16 17 17 17 16 15 15 15 15 14 13 12 13 12 12 12 12 11
22 21 21 22 22 21 21 21 20 18 18 19 20 22 22 21 21 20 19 19 19 19 19 18 17 18 17 17 16 15 15 14 13 13 12 12 11 11 11 11 11 11
21 21 21 21 22 22 22 20 20 20 22 22 22 23 24 22 22 22 20 19 19 19 19 19 19 18 18 17 16 15 15 15 13 12 12 12 11 11 11 10 11 11
20 20 20 21 22 21 20 19 20 22 23 22 23 24 24 22 22 23 21 19 19 18 18 19 19 18 18 17 16 15 15 14 13 12 11 12 12 12 12 11 12 12
18 18 19 21 20 18 17 17 20 22 22 22 23 23 23 22 22 22 22 20 19 18 17 18 17 17 18 17 16 15 15 13 12 12 11 11 12 13 13 12 12 12
16 16 17 20 20 18 16 15 18 21 22 22 22 22 22 21 21 22 22 21 20 19 18 17 17 16 17 16 16 16 15 13 13 12 12 12 13 13 14 14 13 12
15 16 16 18 20 18 16 15 17 18 20 20 20 21 21 22 22 22 21 20 20 19 18 17 17 17 16 14 14 14 14 13 13 12 11 12 12 12 13 14 15 14
14 15 15 17 19 18 16 15 14 15 16 17 19 20 21 21 21 20 20 19 19 18 17 17 17 17 16 14 13 13 13 13 12 11 11 10 10 11 13 15 16 16
12 12 12 13 15 16 17 16 15 14 14 14 15 17 18 19 18 18 18 18 18 17 17 17 17 17 15 14 13 13 14 13 12 12 11 9 10 13 15 15 16 17
10 11 10 10 11 13 16 17 16 14 13 12 12 13 14 15 16 16 17 17 17 17 16 17 17 15 14 13 13 14 14 13 13 14 12 9 10 14 15 15 15 16
5 6 6 6 7 9 12 13 13 12 11 11 11 12 13 14 14 15 16 17 17 16 16 16 16 14 14 14 14 15 14 14 13 14 13 11 11 14 15 16 16 17
10 7 4 2 3 5 7 8 8 7 8 10 11 13 14 15 15 15 15 16 16 17 17 17 16 15 15 15 15 16 15 14 14 14 14 14 13 14 15 16 18 19
22 18 16 12 8 4 3 5 7 7 7 8 9 11 14 15 15 15 16 17 17 17 17 16 15 15 15 15 16 17 15 13 14 17 18 17 16 15 15 17 19 20
24 23 23 22 19 16 12 9 6 8 9 10 9 10 12 13 14 14 15 15 15 15 14 13 14 16 17 16 16 16 15 14 16 19 20 19 19 18 18 18 19 19
21 22 22 22 21 19 18 17 15 10 7 9 12 12 11 11 13 13 14 14 13 13 13 14 16 18 18 17 17 17 16 15 17 21 23 21 21 21 21 21 20 18

ECMWFNIL_925_spd_063.txt.gz
Wind_Speed
22 22 21 20 20 20 19 19 19 18 16 15 14 13 13 13 15 16 13 12 12 10 9 8 9 9 8 9 9 10 12 12 13 13 12 12 11 9 8 6 5 5
24 24 23 23 22 20 19 19 18 17 16 15 14 14 14 13 14 14 13 13 12 10 9 9 8 8 9 10 10 11 12 12 12 13 12 13 13 11 10 8 7 6
25 25 25 24 23 21 20 19 18 17 16 16 15 13 13 13 12 13 13 13 12 11 10 8 8 8 9 12 13 12 12 11 11 11 11 13 13 13 12 10 9 9
25 25 25 24 23 21 21 20 19 17 17 16 15 13 13 13 12 11 12 12 12 11 10 8 9 9 11 13 14 13 12 11 10 10 11 12 13 13 14 12 10 9
25 25 25 24 22 21 21 20 18 17 16 15 14 13 12 12 12 12 12 12 12 11 10 10 10 10 11 13 14 13 12 11 10 11 12 13 13 13 14 14 12 10
24 24 23 22 21 22 21 19 17 15 14 13 13 13 12 12 12 13 13 12 12 11 10 10 10 10 10 12 13 13 12 11 11 11 12 12 12 12 12 13 14 12
22 22 22 21 21 21 20 18 16 14 13 13 13 13 12 12 12 13 13 13 12 10 10 10 10 9 9 11 13 13 12 11 10 9 9 10 10 11 10 10 12 13
23 22 22 22 22 20 20 20 18 16 15 14 14 13 12 12 13 14 13 12 12 11 11 11 10 10 10 11 13 13 12 11 9 8 8 9 9 9 9 8 9 11
24 24 24 23 22 21 22 21 20 19 17 15 15 13 12 12 14 14 13 12 13 12 12 12 12 11 11 11 12 13 12 10 8 7 7 7 7 7 6 6 6 8
24 25 24 23 22 22 22 22 22 21 19 16 14 14 13 13 13 14 14 14 14 14 13 13 13 12 12 11 11 11 10 9 8 8 7 6 5 5 4 3 4 5
26 25 24 23 24 23 21 22 23 21 18 16 15 16 16 14 13 15 16 15 15 15 14 14 14 13 12 12 11 9 9 10 10 9 8 6 5 5 3 2 2 3
27 25 23 23 23 21 19 21 20 18 17 18 18 19 19 17 16 18 18 16 16 16 15 15 15 14 14 13 12 11 10 12 12 11 9 8 7 6 5 4 3 3
26 25 24 22 19 16 16 18 18 18 21 21 20 21 21 19 18 19 19 18 18 19 18 16 16 16 16 16 15 13 12 13 13 12 10 9 8 8 7 7 6 5
29 29 28 25 22 19 19 20 22 24 24 23 22 22 22 20 19 19 20 19 20 21 20 19 18 17 17 18 18 15 14 14 14 13 12 11 10 10 10 9 9 8
31 31 30 28 28 27 26 25 27 28 26 25 24 23 22 22 21 21 21 21 21 22 21 21 20 19 18 19 19 17 16 15 15 15 14 13 13 13 12 12 12 11
30 30 29 29 31 31 30 29 30 29 28 27 25 25 24 23 23 23 23 23 23 23 23 23 23 21 20 20 20 18 17 17 17 17 16 14 14 15 15 15 14 13
26 26 28 29 31 31 30 30 30 29 27 26 25 25 25 24 24 25 24 24 24 24 25 24 23 22 21 21 21 19 19 18 18 18 17 16 16 16 16 16 16 15
19 21 23 24 25 26 27 27 26 25 25 26 26 26 24 24 26 26 25 25 24 24 24 24 22 22 21 21 21 20 20 19 19 19 18 17 17 17 17 17 17 17
14 15 17 19 20 20 21 22 23 23 25 26 26 25 24 24 26 26 25 25 25 25 24 23 22 21 21 21 21 21 20 20 20 20 19 18 18 17 17 17 18 18
8 10 11 12 10 10 12 14 15 17 21 24 24 24 23 23 24 26 25 26 27 27 26 24 23 21 20 20 20 20 19 19 19 18 18 18 17 16 16 17 18 19
5 4 5 4 3 5 8 7 5 6 11 16 18 19 21 22 24 25 26 26 26 26 25 25 23 21 20 20 20 20 18 18 18 18 18 18 16 15 15 15 17 19
15 12 11 9 7 4 5 4 4 6 9 12 12 12 15 19 21 22 23 22 20 19 21 22 21 19 20 21 21 20 18 18 19 19 19 18 15 14 14 14 16 18
24 22 21 19 17 13 7 3 2 5 8 11 12 12 13 16 18 20 21 19 17 19 22 22 19 19 20 21 20 19 18 19 20 20 20 18 15 14 14 15 17 18
27 26 26 25 24 22 18 13 7 2 3 7 10 11 11 13 17 19 20 18 17 19 21 21 19 19 20 20 19 19 19 20 20 20 19 17 15 15 15 16 17 17
24 24 24 25 25 24 23 21 17 12 5 1 5 8 9 10 12 15 16 16 16 18 19 19 19 20 20 20 20 20 20 20 20 19 18 18 17 16 17 18 18 18
22 22 22 22 22 21 21 21 20 18 15 11 6 4 5 8 9 11 13 14 15 16 17 17 18 18 18 19 19 19 19 19 18 18 18 18 18 18 18 19 19 20

ECMWFNIL_925_spd_069.txt.gz
Wind_Speed
22 22 21 21 22 22 22 21 19 18 16 15 14 12 11 10 11 11 11 10 8 7 7 7 6 6 6 6 6 6 6 6 7 6 6 6 5 4 4 4 5 6
23 22 22 22 22 22 22 21 19 17 15 14 12 11 11 10 11 13 12 11 9 9 9 8 8 7 7 6 6 7 8 8 8 8 7 7 7 6 5 4 5 6
24 23 22 22 22 22 21 21 19 17 14 12 11 11 10 11 13 15 13 11 10 10 10 9 7 6 6 6 7 8 9 9 9 8 8 8 8 6 6 5 5 6
23 22 21 20 21 21 20 20 19 18 15 13 12 11 10 12 15 16 14 11 10 11 10 9 7 7 7 7 6 8 9 9 9 8 7 8 7 5 5 6 6 7
22 21 20 20 20 20 19 19 20 19 17 14 13 13 12 15 17 16 14 12 11 10 9 8 7 8 9 8 6 7 8 8 8 7 6 6 5 4 5 6 7 9
21 20 20 20 19 19 19 19 20 20 18 16 15 14 14 16 16 15 14 12 11 9 8 8 8 9 10 9 7 6 6 5 5 5 5 5 5 5 6 6 7 9
21 20 20 20 19 19 19 19 19 19 18 17 16 15 14 15 15 14 13 12 10 8 7 8 9 10 10 9 8 6 5 4 4 4 5 6 6 6 6 6 7 8
21 21 21 21 20 20 19 18 18 18 18 17 16 15 14 14 14 14 13 11 10 8 8 8 9 10 10 9 8 6 5 5 5 5 6 7 7 6 6 6 6 7
21 21 22 21 20 20 19 17 17 18 17 17 16 16 15 13 13 13 13 11 11 9 9 9 9 10 10 10 9 8 7 7 6 6 7 7 7 7 7 6 6 7
21 22 22 21 21 20 19 18 17 17 17 16 16 15 14 13 12 13 12 12 11 10 9 9 9 10 11 10 10 9 8 7 6 7 7 6 6 6 6 6 6 6
22 22 22 21 21 20 20 18 17 17 16 15 16 15 14 13 12 13 13 13 12 10 10 10 10 10 10 11 10 9 8 6 5 5 6 5 5 4 5 5 5 5
22 23 23 22 22 21 21 19 17 17 16 15 15 14 13 12 12 13 13 13 11 10 10 11 10 10 10 10 10 8 7 5 3 3 4 4 4 3 3 4 4 4
21 21 21 21 20 19 19 19 18 17 15 14 13 12 12 12 12 13 13 13 12 11 11 11 10 10 9 9 9 8 6 4 2 2 3 3 3 2 2 3 4 4
18 16 16 18 19 19 17 16 16 16 15 13 12 11 10 10 11 13 12 12 12 11 11 11 11 10 10 9 9 8 6 4 3 3 4 5 4 3 4 4 4 4
13 13 13 16 18 17 16 14 13 12 12 11 11 11 9 9 11 11 11 11 12 11 11 11 11 10 10 9 7 6 5 4 4 4 5 6 6 5 5 5 5 5
14 14 14 16 16 14 13 12 11 8 7 8 9 10 8 8 10 11 11 12 12 11 10 10 9 9 8 7 6 5 5 5 5 6 6 7 8 7 7 7 7 7
14 14 16 16 16 16 15 14 13 10 9 10 9 9 8 7 10 12 11 12 11 10 9 8 8 8 8 7 6 6 6 6 7 8 8 9 10 10 9 9 9 9
11 12 13 14 14 15 17 19 19 17 16 14 11 9 8 9 11 12 11 11 10 9 9 8 8 8 9 9 8 7 7 8 9 10 11 11 12 12 12 12 11 11
10 10 10 9 9 11 13 16 17 17 16 13 10 9 9 9 11 11 10 10 10 10 10 9 9 9 10 10 10 9 10 11 12 13 13 14 14 14 13 13 13 13
10 10 10 8 8 9 9 9 10 11 11 10 8 7 8 9 10 9 9 9 10 10 9 9 9 10 11 11 11 11 12 13 14 15 15 15 15 15 15 15 15 15
13 12 12 12 11 11 10 9 7 7 7 6 5 5 6 7 7 6 7 7 7 7 7 8 9 10 11 11 11 12 12 13 14 15 15 15 16 16 16 16 16 15
17 15 15 14 13 13 12 10 8 6 6 4 3 3 3 2 2 3 4 4 4 4 5 6 8 9 10 10 11 11 11 11 12 14 14 15 16 17 17 17 16 16
23 21 20 18 15 15 14 11 8 6 6 5 5 5 4 4 2 1 1 1 1 1 1 3 5 6 7 8 9 9 10 11 12 12 13 14 14 15 16 16 17 16
27 27 26 25 23 21 19 17 13 10 8 7 6 6 7 7 6 5 5 4 3 2 1 1 3 4 5 7 8 8 8 10 11 11 12 13 13 14 15 16 17 17
25 25 25 26 26 25 24 22 19 17 15 12 12 11 10 9 8 7 7 6 4 2 1 1 3 4 5 6 7 7 7 8 10 11 12 12 14 14 15 16 17 17
22 22 21 21 21 21 20 20 19 18 16 15 16 15 13 12 11 10 10 9 8 6 3 2 3 4 4 5 6 6 7 7 9 9 9 11 13 15 15 16 16 17

ECMWFNIL_925_spd_072.txt.gz
Wind_Speed
12 13 13 13 12 12 13 13 13 12 11 11 11 11 11 10 10 10 9 8 7 6 6 6 6 6 6 5 4 4 5 7 7 7 6 5 5 5 5 5 4 4
11 12 12 11 11 13 14 13 13 12 10 10 11 11 11 11 11 10 9 8 6 6 7 8 8 7 6 6 6 6 6 7 7 7 6 6 5 5 4 4 4 4
12 12 12 11 11 15 16 13 12 12 10 10 11 11 11 11 11 10 9 8 7 8 9 9 8 7 7 7 7 7 8 8 8 7 7 6 5 5 4 3 4 5
14 14 13 11 12 15 16 13 12 12 11 11 11 11 11 11 11 11 10 9 8 9 9 8 8 8 8 8 8 9 9 9 8 8 7 5 4 4 4 3 4 5
15 15 13 12 12 14 14 13 12 12 11 11 11 11 11 12 12 12 11 9 9 8 8 8 8 8 9 9 9 9 9 8 8 7 6 6 5 5 4 4 5 6
16 16 14 13 13 14 13 13 12 12 11 11 11 11 11 13 13 13 11 10 9 8 8 7 8 9 9 9 9 8 8 7 7 6 7 7 6 5 5 6 7 7
17 17 16 14 14 14 14 14 13 12 11 10 10 10 12 13 13 12 12 11 10 9 8 8 9 10 10 10 9 8 7 7 7 7 8 8 7 6 6 6 7 8
17 18 17 15 15 15 15 15 15 13 12 11 10 10 12 13 13 12 12 11 10 9 9 9 10 11 11 10 9 8 7 7 7 8 8 8 7 7 7 7 7 8
16 17 17 16 15 16 16 15 14 14 13 12 11 11 12 13 12 12 12 11 11 10 10 10 11 11 10 10 9 8 8 8 8 8 8 8 7 7 8 7 7 8
15 15 16 16 16 15 15 15 15 14 13 12 12 11 11 11 11 12 12 11 11 11 10 10 11 11 10 10 9 9 9 9 9 8 8 7 7 6 7 7 7 7
12 12 12 13 14 14 15 15 14 14 13 12 12 11 11 10 11 12 11 11 11 10 11 11 11 11 11 10 10 9 9 9 8 8 8 7 7 6 6 6 6 6
8 9 10 10 10 11 13 14 14 13 13 12 11 11 11 10 10 11 11 10 10 10 10 10 11 11 11 10 10 9 9 8 8 8 7 7 7 6 6 5 5 5
9 11 13 12 10 9 9 10 12 13 12 11 11 11 10 10 10 11 11 10 9 9 10 10 10 10 10 10 10 9 9 8 7 7 6 6 6 5 5 5 5 5
15 16 16 16 15 13 10 9 11 12 11 10 10 10 9 9 9 10 10 9 8 8 9 9 9 9 9 10 10 9 8 7 7 6 6 5 4 4 4 4 4 4
17 18 17 16 16 16 14 12 11 12 11 10 9 8 8 7 8 10 9 8 7 6 8 9 8 8 9 9 9 8 7 6 6 6 5 5 5 4 4 4 4 4
14 17 17 17 16 15 15 14 14 13 13 11 10 8 7 7 7 8 8 8 7 6 6 7 6 7 9 11 10 8 6 6 6 6 6 6 5 5 5 4 4 4
12 13 15 16 17 15 14 15 16 14 11 10 10 8 7 7 6 7 7 7 8 7 6 6 6 7 10 10 10 9 7 6 6 6 6 6 6 6 6 6 6 5
10 12 14 15 17 17 17 17 16 13 8 6 6 6 5 5 5 6 6 6 7 8 6 6 7 8 9 9 9 8 8 7 7 7 7 7 7 7 7 7 7 7
11 12 13 13 14 17 17 15 14 14 11 5 3 4 3 2 4 6 8 9 9 9 8 7 7 8 9 10 9 9 8 8 7 7 8 8 8 8 8 8 7 7
13 13 12 11 10 12 13 12 12 16 16 10 6 4 3 2 5 7 10 11 10 9 8 8 8 8 9 9 9 9 9 9 8 7 7 8 8 8 8 8 8 8
12 12 12 11 11 12 12 11 10 12 13 11 6 5 5 6 8 8 8 8 8 8 7 7 8 9 8 9 9 9 10 9 9 9 9 9 8 8 8 8 9 9
14 13 13 12 12 12 11 10 9 9 9 8 6 6 7 7 7 6 5 5 5 6 6 5 7 7 7 8 8 8 8 7 7 8 9 10 9 9 9 9 9 9
17 16 15 13 13 13 11 10 10 8 8 7 6 6 6 6 5 5 4 4 4 4 5 4 4 5 5 6 6 7 7 5 5 7 8 9 10 10 9 9 9 10
21 19 17 15 14 13 12 11 10 10 10 9 8 7 6 6 6 6 5 5 4 4 5 4 2 2 3 3 4 5 6 5 5 7 8 8 9 9 9 8 9 11
24 23 22 20 18 17 15 14 13 13 13 12 10 9 8 7 7 7 6 6 5 4 5 5 3 1 1 1 2 3 3 4 6 8 9 9 8 8 8 7 8 11
20 21 22 21 20 19 18 17 17 17 16 15 13 13 12 11 10 9 9 9 9 8 8 8 6 5 4 2 1 0 1 2 3 5 8 7 7 7 7 7 9 9

ECMWFNIL_925_spd_075.txt.gz
Wind_Speed
16 14 15 15 13 13 12 11 11 10 9 9 9 9 9 10 9 8 8 7 6 5 4 4 4 4 4 4 3 3 4 4 4 4 4 4 4 4 5 6 5 5
18 17 17 16 13 12 11 11 12 11 10 10 10 10 10 11 10 9 8 7 6 5 5 5 5 5 5 5 5 5 6 6 5 5 5 5 4 3 3 5 5 6
19 19 18 16 14 14 13 13 12 11 11 11 11 11 11 11 10 9 8 7 7 7 6 6 6 6 6 6 6 6 7 7 7 6 6 5 4 3 3 3 4 4
21 20 18 15 15 15 15 14 13 12 12 12 11 11 10 11 10 9 8 7 7 8 7 7 7 7 7 7 7 7 7 7 7 6 5 4 3 3 3 3 4 5
20 18 16 15 16 15 15 15 13 12 12 11 11 10 10 11 11 10 9 7 8 8 8 8 7 7 8 8 7 8 8 7 6 5 5 4 4 4 4 4 5 6
18 17 16 16 16 15 15 14 13 12 12 10 10 10 10 11 11 10 9 8 8 8 8 8 8 8 8 8 8 8 7 7 6 6 5 5 5 4 4 4 5 6
18 16 16 16 16 15 15 14 13 12 11 10 10 10 12 12 11 10 10 9 9 8 8 9 9 9 8 8 8 7 6 6 6 6 6 6 5 5 5 5 5 6
17 16 15 15 15 15 14 14 13 12 11 10 9 10 12 13 11 11 9 9 9 8 8 9 9 10 9 8 7 6 6 6 6 6 6 6 6 6 6 5 5 6
14 15 15 15 14 14 14 14 13 12 11 10 9 10 12 12 11 11 10 9 9 8 8 9 9 10 9 7 7 7 7 7 6 6 6 6 6 7 7 7 6 7
10 11 15 15 15 15 14 15 14 13 12 10 9 10 11 12 11 10 10 9 8 9 9 9 10 10 9 8 7 7 8 8 7 7 7 6 5 7 8 8 7 8
7 8 11 12 14 15 15 15 14 13 12 11 10 10 10 11 11 10 10 9 8 9 9 10 10 10 9 9 8 8 8 8 8 8 6 5 5 6 7 7 8 8
13 13 12 10 11 14 14 14 14 13 13 12 10 10 10 9 10 10 10 9 9 9 9 10 10 11 10 10 9 9 9 8 8 7 6 6 5 5 5 6 6 6
18 19 15 10 11 13 13 13 13 12 13 12 11 10 10 9 9 10 9 9 9 8 9 10 11 11 11 10 10 9 9 8 7 7 6 6 5 5 5 5 5 5
18 19 15 12 13 14 12 12 12 12 11 11 11 10 10 9 9 10 10 8 8 8 9 10 11 11 11 10 10 9 8 8 7 7 6 6 5 5 5 4 4 4
13 16 16 15 15 15 13 11 12 12 11 11 11 10 9 8 9 10 11 9 8 8 9 10 10 10 11 10 9 9 8 7 7 6 6 6 5 5 5 5 5 5
11 12 13 13 13 14 14 13 12 11 10 11 11 10 8 8 9 10 10 9 8 7 7 8 7 7 10 10 9 9 8 6 7 7 6 7 7 6 7 6 6 5
13 12 10 9 9 11 13 15 15 14 12 11 11 11 9 7 8 9 9 8 8 7 7 6 4 4 9 10 9 10 8 5 5 7 7 7 8 8 7 7 7 6
13 13 12 10 9 10 13 16 17 17 16 13 13 13 11 8 7 8 8 7 7 6 6 5 2 2 8 10 8 9 8 4 3 6 7 7 8 8 8 7 7 7
12 13 13 12 10 10 13 15 16 17 16 14 12 12 11 9 7 7 8 7 6 5 4 3 1 3 6 9 9 9 9 7 5 6 7 8 8 8 8 8 8 8
12 13 13 12 10 10 12 14 15 15 15 13 11 10 10 8 6 7 8 7 6 6 3 2 4 5 6 7 9 9 10 10 9 8 7 8 9 9 9 10 9 9
12 12 12 12 12 11 10 10 13 14 12 8 7 7 7 6 5 6 8 7 7 5 4 5 7 7 7 8 10 10 11 11 12 10 10 10 11 11 12 11 11 10
11 11 12 13 13 12 11 10 13 15 12 7 5 6 7 6 5 6 6 6 5 5 5 8 9 8 8 9 9 10 11 11 11 11 11 12 14 16 16 14 12 12
14 14 13 14 13 11 11 11 12 13 12 9 8 8 8 8 7 7 6 6 7 6 5 7 6 6 7 7 8 9 10 10 9 9 11 13 15 17 15 12 12 13
15 15 14 13 13 11 10 10 10 10 10 9 10 9 9 10 9 9 9 8 8 8 6 6 4 4 5 5 6 7 7 8 8 9 13 16 15 14 13 12 12 14
16 16 15 14 13 12 10 9 9 9 8 9 11 10 10 10 10 10 9 9 9 8 5 2 2 2 3 3 3 4 5 7 7 8 13 15 13 11 11 11 11 11
17 17 16 15 13 13 12 10 9 9 8 7 8 10 11 10 10 11 10 10 10 10 7 4 3 2 2 1 1 2 4 4 4 5 9 10 10 11 12 12 12 10

ECMWFNIL_925_spd_078.txt.gz
Wind_Speed
19 23 20 19 20 19 20 19 18 19 19 19 19 17 17 16 14 13 13 11 10 11 10 9 9 8 7 8 8 8 9 7 7 8 8 8 6 6 8 8 8 9
20 23 20 19 20 19 19 17 17 17 16 16 16 15 16 15 13 13 13 11 11 11 10 9 9 8 8 8 7 9 10 9 8 8 8 9 8 7 6 6 7 7
21 21 19 19 19 17 15 16 17 16 16 16 15 15 16 14 12 12 12 11 11 10 9 10 10 9 9 9 8 9 10 10 9 8 9 9 8 8 7 6 6 6
19 19 20 19 15 13 15 17 17 17 17 17 15 15 15 14 13 12 11 10 10 10 10 10 9 9 10 10 10 9 10 10 10 9 8 7 7 7 7 6 6 7
17 18 18 15 13 15 17 18 16 16 17 16 15 15 14 14 13 12 10 10 10 10 10 10 9 10 10 10 10 10 9 9 9 8 7 6 6 6 6 6 7 7
16 17 14 13 15 17 17 17 17 17 17 16 15 15 15 14 13 12 11 11 11 11 10 10 10 11 10 9 10 9 8 8 7 6 6 6 5 5 6 6 7 8
13 14 13 14 17 17 16 18 18 18 18 17 16 16 16 14 13 13 12 11 12 11 10 10 10 10 9 9 10 8 6 7 5 4 7 6 5 6 7 7 7 7
9 10 12 13 16 17 17 18 19 18 18 16 16 16 15 14 14 13 11 11 11 11 11 11 10 9 9 9 8 6 7 7 4 4 7 7 5 6 7 7 7 7
12 14 15 14 16 17 17 17 18 17 16 15 15 16 14 13 13 12 11 11 10 10 11 10 10 10 8 8 7 7 7 5 3 6 9 6 5 7 8 7 8 8
18 19 18 16 16 17 16 16 16 16 16 15 15 15 14 13 12 11 10 10 10 10 10 10 10 10 8 7 8 8 7 5 5 9 8 4 5 10 10 8 9 9
23 22 20 17 16 16 17 16 15 15 15 15 15 16 14 13 12 10 10 10 9 9 9 9 10 9 8 8 8 8 8 7 8 8 5 4 8 11 11 9 9 10
26 25 21 17 15 17 18 17 15 15 14 14 15 16 15 14 12 10 9 9 9 9 9 9 10 9 9 9 9 9 9 9 9 7 5 7 9 9 9 9 9 10
27 24 19 17 17 18 18 16 15 14 13 13 13 14 14 13 12 11 9 9 8 9 9 9 10 10 9 10 10 10 9 9 9 7 7 7 6 7 7 7 8 9
24 20 17 17 19 18 17 16 15 14 13 13 13 13 12 11 12 11 10 8 8 8 10 10 9 9 10 10 10 9 9 9 8 7 7 6 5 7 7 6 7 7
20 19 19 19 19 17 16 15 14 13 14 13 12 13 12 10 11 11 9 8 8 9 11 10 9 9 9 9 10 10 8 8 7 6 6 5 4 5 5 4 6 6
16 17 17 18 18 16 15 15 14 12 13 14 13 13 11 10 12 12 9 9 9 10 12 12 10 10 9 9 11 11 8 7 7 5 5 4 3 3 4 3 3 5
15 15 16 16 16 16 16 16 14 12 13 15 15 13 11 11 13 12 10 9 9 10 11 10 9 8 8 9 11 11 8 6 5 3 4 4 3 3 4 4 3 3
14 15 15 14 14 16 18 18 17 17 18 18 17 14 12 12 13 13 12 11 11 10 8 7 6 4 5 7 8 8 7 5 4 2 1 2 3 2 2 5 5 3
15 15 16 14 12 15 18 19 19 19 19 18 17 15 14 15 15 15 14 13 14 12 9 7 5 3 3 4 5 5 3 2 1 3 5 4 3 3 4 7 7 6
15 15 15 13 11 12 16 17 19 19 18 17 15 13 13 13 14 14 13 12 12 11 9 8 6 4 3 2 2 2 2 4 5 6 6 7 7 5 5 6 7 6
12 13 13 12 12 12 13 14 17 18 17 16 15 12 11 10 11 12 11 10 8 7 6 6 5 4 3 1 2 4 5 6 7 8 8 8 9 8 7 7 8 8
14 13 14 14 14 13 11 11 13 15 15 14 13 11 9 9 9 10 10 8 5 4 5 5 4 3 2 2 3 5 7 8 8 8 9 8 7 7 9 10 10 11
20 19 17 15 15 15 13 12 12 12 12 11 9 7 8 9 11 12 11 9 7 5 5 5 4 2 1 2 4 6 7 9 9 8 6 6 6 7 8 9 9 9
22 22 21 18 17 16 15 13 11 11 10 8 6 7 9 11 12 13 12 9 7 6 4 4 3 2 1 2 3 5 6 6 7 5 5 6 7 7 8 8 6 6
22 21 20 20 20 18 16 14 11 9 8 7 6 8 12 14 14 14 13 11 8 7 6 5 5 4 3 2 2 3 4 4 4 3 4 7 8 7 7 7 7 6
22 21 20 20 20 19 18 16 15 12 10 9 9 10 12 14 15 14 15 13 11 9 8 8 8 7 6 4 3 3 3 3 3 3 4 6 8 8 7 5 4 3

ECMWFNIL_925_spd_084.txt.gz
Wind_Speed
21 22 23 22 21 21 21 22 22 22 22 22 21 20 20 19 18 17 17 17 17 16 16 15 14 15 16 15 14 13 13 12 13 14 14 14 13 13 12 13 14 14
21 21 21 20 19 18 20 22 22 22 21 20 20 20 20 19 19 19 19 18 17 16 16 16 15 15 17 16 14 13 12 11 12 13 13 13 13 13 13 13 12 12
21 21 20 18 17 17 17 19 20 21 20 19 20 20 19 19 19 19 19 19 17 17 17 16 15 15 17 16 14 13 12 11 12 12 12 12 12 12 13 13 12 12
20 21 19 18 19 19 19 19 19 20 22 21 20 20 20 20 20 19 20 19 18 18 18 16 15 14 16 15 14 12 12 11 11 12 12 11 11 12 13 13 13 13
21 21 21 21 21 20 22 23 20 20 24 24 22 23 22 21 20 20 20 19 18 17 16 14 13 13 14 15 14 13 12 11 11 11 11 11 10 11 12 13 13 13
21 22 22 21 20 20 22 25 22 20 23 26 25 24 23 22 21 19 19 18 16 16 15 14 14 13 13 14 14 13 13 13 12 12 11 11 10 10 10 11 12 13
21 22 21 20 20 22 24 26 23 21 24 26 25 25 25 23 21 19 18 16 15 16 16 15 15 15 14 15 15 15 14 13 13 12 11 10 10 10 10 10 12 13
20 21 21 21 22 24 25 25 24 25 26 27 26 25 25 23 21 19 16 15 16 17 16 15 16 16 15 16 16 14 13 13 12 12 12 11 10 10 10 10 12 13
20 21 22 22 23 25 24 24 27 29 29 29 27 25 23 21 20 18 17 18 18 16 15 15 16 17 16 15 14 13 13 12 11 11 13 12 11 11 11 11 11 12
21 21 23 24 25 27 28 28 31 32 31 28 26 24 22 20 17 17 19 20 18 16 16 16 17 18 17 14 12 12 11 10 11 12 13 12 12 12 11 11 12 12
24 23 25 26 28 30 31 32 34 32 29 27 26 24 21 18 17 18 21 21 18 18 17 16 17 16 15 13 11 10 10 10 12 13 13 12 13 13 12 11 11 12
25 25 26 27 30 32 31 31 31 30 28 26 26 24 20 19 20 21 21 20 18 18 17 15 15 13 12 12 11 10 10 9 11 13 13 13 13 12 11 10 11 12
21 22 23 23 27 31 29 28 28 26 26 26 24 23 22 21 22 22 20 19 18 17 16 15 14 12 12 12 11 10 10 8 9 12 15 15 13 12 12 11 12 12
13 15 17 17 21 24 25 26 26 24 25 26 24 24 22 20 21 21 20 20 19 18 17 15 14 13 13 14 12 11 10 10 11 15 17 17 15 14 14 13 13 12
9 10 11 14 16 19 21 23 24 24 24 24 23 23 21 19 20 21 22 22 21 19 18 17 15 15 15 14 13 12 12 13 16 17 18 18 18 16 15 15 15 14
12 10 11 15 17 20 21 19 20 24 23 21 23 24 21 18 19 21 22 22 21 20 19 17 16 16 15 14 13 15 16 17 17 18 19 19 20 19 17 16 15 14
14 14 14 16 17 21 21 17 19 23 22 21 23 23 20 18 18 19 21 22 22 21 19 17 16 16 15 15 16 17 18 17 17 18 20 20 20 19 17 16 14 12
14 16 17 17 19 22 19 15 19 23 22 22 23 20 19 19 19 21 23 24 23 22 20 19 18 17 18 18 17 16 16 16 17 18 18 17 17 16 15 12 11 9
18 17 17 17 19 20 17 16 20 23 22 22 23 22 22 22 23 25 26 26 25 24 23 22 21 20 20 20 18 18 18 17 17 16 16 15 13 12 10 8 7 5
19 20 19 17 17 19 20 20 23 24 25 26 27 27 27 27 27 27 26 25 25 25 24 23 21 19 19 20 20 19 19 18 17 15 13 12 9 8 7 5 5 5
18 21 23 21 21 23 24 23 24 25 27 29 32 32 31 31 29 27 26 25 23 23 23 22 20 17 16 17 17 16 16 15 13 10 9 9 8 7 8 8 8 6
17 21 23 24 25 27 27 26 27 28 29 30 33 32 30 30 29 26 25 24 21 20 20 19 18 15 14 12 11 10 9 8 9 9 9 10 10 9 8 8 7 6
15 18 20 21 23 26 28 28 27 27 27 27 28 29 27 26 26 24 22 21 20 18 17 17 16 14 12 11 9 9 10 11 13 14 12 11 10 9 7 6 6 4
13 15 16 17 18 19 22 23 21 20 20 19 21 25 26 24 23 23 22 20 19 17 15 15 16 14 12 11 10 11 13 15 15 14 13 13 12 11 9 7 6 5
17 15 15 16 16 15 17 19 17 14 13 14 18 23 24 22 21 22 22 20 16 15 15 16 17 16 14 13 13 12 13 14 14 14 15 15 13 12 11 8 7 6
21 19 17 17 17 16 16 18 18 16 14 15 19 21 23 23 22 22 24 22 19 18 18 18 18 18 16 14 14 13 13 13 14 15 17 16 14 13 12 11 9 8

ECMWFNIL_925_spd_087.txt.gz
Wind_Speed
23 22 21 21 21 20 19 19 18 17 18 18 17 16 15 14 14 14 15 16 17 17 17 18 18 17 16 15 15 15 15 15 15 15 14 15 16 15 16 16 15 15
24 22 20 19 21 21 20 19 17 17 17 16 15 15 13 12 13 14 15 16 17 18 17 17 17 17 16 16 16 16 15 15 15 15 15 15 15 14 14 14 13 13
25 24 22 20 22 22 20 17 16 17 16 14 14 14 13 14 15 14 15 16 17 17 18 17 16 16 16 16 16 15 14 14 14 15 15 15 14 14 13 12 11 12
26 25 23 23 23 23 21 19 18 18 17 15 15 16 15 16 17 16 16 17 17 17 17 16 15 15 15 14 14 13 12 13 13 14 14 14 14 13 12 12 12 11
26 25 24 23 23 22 21 20 19 19 19 17 16 17 18 19 19 18 17 17 16 16 16 16 14 14 15 15 14 13 13 12 12 13 13 13 12 11 11 12 12 12
23 23 23 23 22 22 21 20 20 20 19 18 17 18 19 20 20 19 18 17 16 16 17 16 15 15 17 17 15 14 13 13 13 13 12 11 11 11 11 11 12 12
19 20 21 22 22 21 21 20 20 20 20 20 20 21 20 19 19 20 19 18 18 17 17 16 15 16 17 17 15 14 13 13 13 12 11 10 10 11 11 11 12 12
16 17 18 19 21 20 20 20 21 21 21 21 23 23 21 18 19 20 21 21 19 18 17 16 15 15 16 16 15 14 13 13 13 12 12 11 10 10 10 10 11 11
12 15 17 18 19 19 18 19 21 21 21 23 25 24 22 20 20 21 21 20 18 17 16 15 15 15 15 15 15 15 14 14 13 12 11 11 11 10 10 10 10 10
8 11 15 16 17 18 18 19 21 23 22 24 25 24 23 23 21 20 19 17 16 16 16 16 17 15 15 16 16 15 14 13 12 11 11 11 10 10 10 10 10 10
4 8 12 12 12 12 13 16 18 21 23 24 24 24 23 23 22 20 17 15 16 16 16 17 17 16 16 16 14 12 11 11 11 10 10 10 10 9 8 9 9 9
5 8 12 12 11 8 8 10 13 16 20 22 23 24 23 23 21 19 17 17 17 16 15 17 17 17 16 14 13 11 11 11 11 10 10 11 11 9 8 9 9 9
5 6 10 13 13 12 12 13 15 17 19 19 21 24 23 21 20 19 19 19 18 16 16 17 18 17 15 13 11 10 10 10 10 11 12 11 11 10 9 8 10 10
3 5 10 13 13 14 16 18 18 20 21 20 20 22 21 19 19 20 21 20 18 17 17 17 17 16 15 13 11 9 9 9 11 13 13 11 10 9 8 8 9 10
3 7 11 13 14 16 18 20 21 22 23 21 21 21 19 18 19 21 21 20 19 18 17 17 16 15 15 14 11 10 9 9 13 15 14 12 11 10 10 12 12 12
5 9 13 14 17 18 18 20 22 21 22 21 21 21 21 20 20 20 20 19 18 18 17 17 16 15 15 15 12 11 10 10 14 18 16 13 14 15 16 16 16 16
9 12 15 15 18 19 17 17 20 20 19 20 21 22 21 20 21 20 19 18 18 18 17 16 16 15 15 15 13 12 13 13 16 18 17 16 17 18 18 18 17 16
11 14 15 16 19 20 18 18 20 19 18 19 20 21 19 18 20 20 19 18 18 17 16 15 15 14 14 14 14 15 15 16 17 18 19 20 20 19 18 16 15 12
10 13 14 15 18 19 20 20 19 18 19 20 20 20 20 19 20 20 20 19 18 17 15 14 14 14 15 16 18 19 18 18 19 20 21 21 19 17 15 12 10 7
9 11 12 13 15 15 15 17 16 16 20 22 21 21 21 21 21 21 21 20 19 18 17 17 18 17 18 19 20 20 20 20 21 21 20 18 15 12 10 8 7 5
13 12 12 13 15 15 15 14 15 17 19 21 23 24 24 23 24 23 23 22 22 22 22 21 21 21 21 21 21 21 21 22 21 19 16 14 11 9 7 7 6 5
16 15 14 15 16 16 17 17 18 20 20 20 23 25 26 26 26 24 24 24 24 24 26 25 24 23 23 22 22 22 22 21 18 15 13 12 12 11 9 9 8 6
18 18 18 18 19 19 20 21 20 22 23 22 23 27 27 27 27 26 24 23 22 22 22 23 21 21 21 20 18 18 19 18 15 14 13 11 10 11 11 10 9 7
18 18 19 21 21 21 23 25 24 24 25 25 26 28 28 27 28 27 24 21 20 18 17 16 15 14 14 16 14 12 14 15 14 14 15 13 11 12 12 11 10 8
16 16 17 19 20 19 21 26 28 27 26 25 26 28 27 26 26 26 25 21 18 15 13 13 12 10 9 10 11 10 10 12 13 15 17 17 15 14 12 11 10 8
16 16 15 16 17 16 18 22 25 26 25 25 25 26 26 25 23 23 23 22 18 15 13 13 13 11 9 8 9 10 8 9 12 15 17 18 16 15 14 12 11 10

ECMWFNIL_925_spd_093.txt.gz
Wind_Speed
11 11 11 9 10 13 15 14 16 19 19 16 16 15 14 15 15 17 20 19 18 18 18 17 16 16 17 17 17 15 13 14 16 16 14 14 14 13 13 14 15 16
7 8 8 7 8 11 13 15 16 19 19 16 16 15 13 14 14 17 20 18 17 19 20 18 17 16 15 15 14 14 13 14 15 15 14 13 14 13 12 13 13 13
4 4 4 5 5 8 12 15 15 17 18 16 14 14 13 14 14 15 18 17 16 18 19 18 15 14 12 12 12 13 12 14 14 15 14 13 13 12 11 12 11 9
4 3 3 5 5 6 10 13 12 13 16 16 14 13 13 14 15 16 15 16 15 15 17 16 12 12 12 11 12 13 13 14 13 13 13 13 12 10 10 11 10 10
6 6 4 6 8 7 9 11 11 11 14 17 15 13 12 13 15 18 17 16 15 14 14 14 12 14 14 12 13 14 14 14 13 12 12 12 11 10 10 11 10 11
6 6 6 7 8 9 11 11 11 11 12 16 17 14 13 14 14 15 17 17 17 15 14 14 14 14 14 14 14 14 14 13 12 12 12 11 12 11 11 11 10 10
6 4 4 5 6 8 11 12 12 12 13 14 17 16 14 15 15 13 15 17 18 16 16 15 15 14 13 14 14 14 12 11 11 12 11 11 12 12 12 11 10 10
6 4 3 1 5 8 11 12 12 11 12 14 15 15 15 16 16 15 15 17 17 17 17 16 15 14 13 14 14 14 13 12 12 12 11 12 12 12 12 11 10 9
7 6 5 2 4 9 11 11 9 7 9 12 14 14 14 14 15 16 17 17 17 17 17 17 16 15 15 15 15 15 15 13 12 11 12 13 12 11 11 11 10 10
7 6 5 4 5 7 8 8 8 8 10 13 14 13 12 11 12 15 16 16 17 17 17 17 17 16 16 16 16 16 15 13 12 11 11 11 11 10 9 10 10 10
9 6 6 7 7 6 6 7 7 9 12 13 14 13 12 12 12 13 14 15 16 17 17 16 15 15 15 16 15 14 12 11 11 11 11 10 9 8 9 10 10 10
13 9 8 8 7 6 6 6 6 8 12 13 13 14 13 13 14 15 14 14 15 15 15 15 14 13 14 14 13 12 10 10 11 12 11 10 8 8 8 9 9 9
15 11 9 9 8 7 6 6 6 7 10 13 14 13 13 13 15 17 16 14 14 14 14 14 13 12 13 13 12 12 11 11 12 12 11 9 8 8 8 8 8 10
15 13 10 9 8 7 5 6 6 6 9 12 14 14 14 15 17 17 17 16 15 14 14 13 12 12 13 13 13 13 13 12 12 11 10 9 9 9 9 9 9 10
16 13 11 9 8 7 6 6 6 7 9 12 14 15 15 16 17 17 16 16 15 13 12 12 12 13 13 13 13 13 13 12 11 11 10 10 11 11 10 9 9 10
16 13 11 10 9 7 6 6 5 7 10 11 13 16 15 15 16 17 15 14 14 13 12 12 13 13 13 12 13 12 12 12 11 11 11 12 13 13 12 11 11 11
16 14 10 9 8 5 4 4 3 6 9 10 11 13 14 14 15 16 14 13 13 12 11 12 13 13 13 12 11 11 11 12 12 13 14 15 15 15 14 14 15 14
17 15 11 9 7 4 1 1 3 5 7 8 9 11 12 12 12 13 13 12 12 12 11 12 13 13 13 11 10 9 10 12 14 16 17 18 17 18 19 20 20 20
17 16 14 12 9 7 4 4 6 7 8 8 9 10 11 11 11 12 12 12 12 11 11 11 12 12 12 11 9 8 9 12 17 19 20 20 19 20 23 23 23 21
19 18 17 15 12 9 8 8 8 10 9 10 11 11 11 12 12 12 12 12 11 11 11 10 10 11 11 10 9 8 10 14 19 22 22 22 21 23 24 23 21 18
19 20 19 17 14 11 11 11 11 12 12 11 13 14 14 15 14 13 12 12 11 10 10 9 9 9 10 9 9 11 13 17 22 24 25 25 24 23 22 20 18 16
19 20 19 17 16 14 14 14 14 15 15 14 14 15 15 16 16 15 14 13 13 11 11 10 9 9 9 10 11 14 18 21 23 24 23 22 20 19 18 19 18 18
18 19 19 18 18 17 16 15 15 16 16 16 16 16 15 17 18 18 17 16 15 15 15 14 12 11 11 13 15 18 22 24 22 19 17 15 15 16 18 18 18 17
19 18 18 18 20 19 16 15 16 16 17 18 20 21 20 20 20 20 20 19 19 19 18 17 16 13 11 13 15 17 19 19 17 15 14 15 16 17 18 17 16 15
21 19 18 19 20 20 18 17 17 17 18 19 22 24 25 25 23 24 24 23 22 21 20 19 18 15 13 12 13 13 13 13 13 13 13 14 15 15 15 15 14 12
21 21 20 20 20 20 20 20 19 18 19 20 21 24 27 28 27 27 26 25 23 22 21 20 19 17 16 15 14 12 10 9 9 9 10 11 12 12 12 12 11 11